Bel Air, Maryland - USA |
Today's Data File |
9/2/26
Time Wind Dir Wind Spd Wind Gust Hum In Humidity Temp In Temp Raw Barom Wind Chill Press Alt Cloud Base Dens Alt Temp Out R DailyRain 24HrRain RainRate
� mph mph % % �F �F in �F ft ft ft �F/hr in in in/hr
12:00am 48 2 6 44 96 71.6 75.7 29.45 75.7 440 304 1636 -1.00 0.00 0.00 0.000
12:01am 48 0 2 44 96 71.6 75.7 29.45 75.7 439 304 1635 -0.98 0.00 0.00 0.000
12:02am 48 0 2 44 96 71.6 75.7 29.45 75.7 439 304 1635 -0.97 0.00 0.00 0.000
12:03am 48 0 2 44 96 71.6 75.7 29.45 75.7 440 304 1636 -0.96 0.00 0.00 0.000
12:04am 76 4 4 44 96 71.6 75.7 29.45 75.7 440 304 1636 -0.94 0.00 0.00 0.000
12:05am 63 3 4 44 96 71.6 75.7 29.45 75.7 440 304 1636 -0.93 0.00 0.00 0.000
12:06am 81 3 5 44 96 71.6 75.6 29.45 75.6 439 304 1629 -1.01 0.00 0.00 0.000
12:07am 81 1 5 44 95 71.6 75.6 29.45 75.6 439 382 1629 -0.99 0.00 0.00 0.000
12:08am 80 0 5 44 95 71.6 75.6 29.45 75.6 435 382 1624 -0.98 0.00 0.00 0.000
12:09am 80 0 5 44 95 71.6 75.6 29.45 75.6 434 382 1623 -0.96 0.00 0.00 0.000
12:10am 80 0 5 44 95 71.6 75.5 29.46 75.5 432 382 1615 -1.04 0.00 0.00 0.000
12:11am 80 2 3 44 96 71.6 75.5 29.46 75.5 429 304 1611 -1.03 0.00 0.00 0.000
12:12am 80 0 3 44 96 71.6 75.5 29.46 75.5 428 304 1609 -1.01 0.00 0.00 0.000
12:13am 80 0 3 44 96 71.6 75.5 29.46 75.5 427 304 1608 -0.99 0.00 0.00 0.000
12:14am 80 1 3 44 96 71.6 75.5 29.46 75.5 426 304 1607 -0.98 0.00 0.00 0.000
12:15am 80 1 3 44 96 71.6 75.4 29.46 75.4 425 304 1599 -1.06 0.00 0.00 0.000
12:16am 80 1 2 44 96 71.6 75.4 29.46 75.4 425 304 1599 -1.04 0.00 0.00 0.000
12:17am 80 1 2 44 96 71.4 75.3 29.46 75.3 426 304 1594 -1.12 0.00 0.00 0.000
12:18am 80 2 3 44 95 71.4 75.3 29.46 75.3 426 382 1594 -1.10 0.00 0.00 0.000
12:19am 80 0 3 44 95 71.4 75.2 29.46 75.2 426 382 1588 -1.18 0.00 0.00 0.000
12:20am 80 0 3 44 95 71.4 75.1 29.46 75.1 427 381 1583 -1.26 0.00 0.00 0.000
12:21am 80 1 3 44 96 71.4 75.1 29.46 75.1 427 304 1583 -1.24 0.00 0.00 0.000
12:22am 80 1 3 44 95 71.4 75.0 29.46 75.0 427 381 1576 -1.32 0.00 0.00 0.000
12:23am 80 0 3 44 95 71.4 75.0 29.46 75.0 427 381 1576 -1.30 0.00 0.00 0.000
12:24am 80 1 3 44 95 71.4 74.9 29.46 74.9 427 381 1570 -1.37 0.00 0.00 0.000
12:25am 80 1 3 44 95 71.4 74.8 29.46 74.8 426 381 1563 -1.45 0.00 0.00 0.000
12:26am 80 1 2 44 95 71.4 74.8 29.46 74.8 425 381 1561 -1.43 0.00 0.00 0.000
12:27am 80 2 2 44 95 71.4 74.7 29.47 74.7 423 381 1553 -1.50 0.00 0.00 0.000
12:28am 310 1 3 44 95 71.4 74.6 29.47 74.6 421 381 1544 -1.58 0.00 0.00 0.000
12:29am 310 1 3 44 95 71.4 74.6 29.47 74.6 420 381 1543 -1.55 0.00 0.00 0.000
12:30am 310 1 3 44 95 71.4 74.5 29.47 74.5 420 381 1537 -1.62 0.00 0.00 0.000
12:31am 310 1 2 44 95 71.4 74.4 29.47 74.4 421 380 1532 -1.70 0.00 0.00 0.000
12:32am 310 1 2 44 95 71.4 74.5 29.47 74.5 421 381 1538 -1.57 0.00 0.00 0.000
12:33am 310 0 2 44 95 71.4 74.4 29.47 74.4 422 380 1533 -1.64 0.00 0.00 0.000
12:34am 310 0 2 44 95 71.4 74.4 29.47 74.4 422 380 1533 -1.62 0.00 0.00 0.000
12:35am 310 0 2 44 95 71.4 74.4 29.47 74.4 422 380 1533 -1.59 0.00 0.00 0.000
12:36am 342 1 1 44 95 71.4 74.3 29.47 74.3 421 380 1525 -1.66 0.00 0.00 0.000
12:37am 356 0 3 44 95 71.4 74.3 29.47 74.3 421 380 1525 -1.63 0.00 0.00 0.000
12:38am 356 1 3 44 95 71.6 74.3 29.47 74.3 420 380 1524 -1.61 0.00 0.00 0.000
12:39am 356 0 3 44 95 71.6 74.2 29.47 74.2 419 380 1517 -1.68 0.00 0.00 0.000
12:40am 356 0 3 44 95 71.6 74.2 29.47 74.2 418 380 1516 -1.65 0.00 0.00 0.000
12:41am 356 0 0 44 95 71.6 74.2 29.47 74.2 419 380 1517 -1.63 0.00 0.00 0.000
12:42am 356 0 1 44 95 71.6 74.2 29.47 74.2 422 380 1520 -1.60 0.00 0.00 0.000
12:43am 356 0 1 44 95 71.6 74.1 29.47 74.1 422 380 1514 -1.67 0.00 0.00 0.000
12:44am 356 0 2 44 95 71.6 74.1 29.47 74.1 422 380 1514 -1.64 0.00 0.00 0.000
12:45am 356 0 2 44 95 71.6 74.1 29.47 74.1 422 380 1514 -1.62 0.00 0.00 0.000
12:46am 356 0 0 44 95 71.6 74.1 29.46 74.1 424 380 1516 -1.59 0.00 0.00 0.000
12:47am 356 0 0 44 95 71.6 74.1 29.46 74.1 425 380 1517 -1.56 0.00 0.00 0.000
12:48am 356 0 0 44 95 71.6 74.0 29.46 74.0 425 380 1511 -1.64 0.00 0.00 0.000
12:49am 356 2 2 44 95 71.6 74.0 29.46 74.0 426 380 1512 -1.61 0.00 0.00 0.000
12:50am 356 0 2 45 95 71.6 74.0 29.46 74.0 425 380 1511 -1.58 0.00 0.00 0.000
12:51am 356 0 1 44 95 71.6 74.0 29.46 74.0 425 380 1511 -1.56 0.00 0.00 0.000
12:52am 356 0 1 44 95 71.6 74.0 29.46 74.0 424 380 1510 -1.53 0.01 0.01 0.000
12:53am 356 0 1 44 95 71.6 74.0 29.46 74.0 424 380 1510 -1.51 0.01 0.01 0.000
12:54am 356 0 1 44 95 71.6 73.9 29.46 73.9 425 380 1504 -1.58 0.01 0.01 0.000
12:55am 356 0 1 44 95 71.6 73.9 29.46 73.9 425 380 1504 -1.55 0.01 0.01 0.000
12:56am 356 0 0 44 95 71.6 73.9 29.46 73.9 424 380 1503 -1.53 0.01 0.01 0.000
12:57am 356 0 0 44 95 71.6 73.9 29.46 73.9 425 380 1504 -1.50 0.01 0.01 0.000
12:58am 356 0 0 44 95 71.6 73.8 29.46 73.8 425 379 1498 -1.58 0.01 0.01 0.000
12:59am 356 0 0 44 95 71.6 73.8 29.46 73.8 426 379 1499 -1.55 0.01 0.01 0.000
1:00am 356 0 0 44 96 71.6 73.8 29.46 73.8 426 302 1499 -1.53 0.01 0.01 0.000
1:01am 356 0 1 44 96 71.6 73.8 29.46 73.8 427 302 1500 -1.50 0.01 0.01 0.000
1:02am 356 1 1 44 96 71.6 73.7 29.46 73.7 428 302 1495 -1.58 0.01 0.01 0.000
1:03am 356 0 1 44 96 71.4 73.7 29.46 73.7 429 302 1497 -1.55 0.01 0.01 0.000
1:04am 356 0 1 44 96 71.4 73.7 29.46 73.7 429 302 1497 -1.53 0.01 0.01 0.000
1:05am 356 0 1 44 96 71.4 73.7 29.46 73.7 431 302 1500 -1.50 0.01 0.01 0.000
1:06am 356 0 0 44 96 71.4 73.7 29.45 73.7 434 302 1503 -1.48 0.01 0.01 0.000
1:07am 356 0 0 44 96 71.4 73.6 29.45 73.6 435 302 1498 -1.55 0.01 0.01 0.000
1:08am 356 0 0 44 96 71.4 73.6 29.45 73.6 436 302 1499 -1.52 0.01 0.01 0.000
1:09am 356 0 0 44 96 71.4 73.6 29.45 73.6 438 302 1501 -1.50 0.01 0.01 0.000
1:10am 356 1 1 44 96 71.4 73.6 29.45 73.6 439 302 1502 -1.47 0.01 0.01 0.000
1:11am 356 0 1 44 96 71.4 73.5 29.45 73.5 440 302 1497 -1.55 0.01 0.01 0.000
1:12am 356 0 1 44 96 71.4 73.5 29.45 73.5 441 302 1498 -1.52 0.01 0.01 0.000
1:13am 356 0 1 44 96 71.4 73.5 29.45 73.5 441 302 1498 -1.50 0.01 0.01 0.000
1:14am 356 0 1 44 96 71.4 73.5 29.45 73.5 441 302 1498 -1.47 0.01 0.01 0.000
1:15am 356 1 3 44 96 71.4 73.4 29.45 73.4 441 301 1493 -1.55 0.01 0.01 0.000
1:16am 356 0 2 44 96 71.6 73.4 29.44 73.4 443 301 1495 -1.52 0.01 0.01 0.000
1:17am 356 0 2 44 96 71.6 73.3 29.44 73.3 445 301 1491 -1.59 0.01 0.01 0.000
1:18am 356 0 2 44 96 71.6 73.4 29.44 73.4 449 301 1502 -1.47 0.01 0.01 0.000
1:19am 356 0 2 44 96 71.6 73.3 29.44 73.3 451 301 1498 -1.54 0.01 0.01 0.000
1:20am 356 0 2 44 96 71.6 73.3 29.43 73.3 453 301 1500 -1.52 0.01 0.01 0.000
1:21am 356 0 0 44 96 71.6 73.3 29.43 73.3 453 301 1501 -1.49 0.01 0.01 0.000
1:22am 356 0 0 44 97 71.6 73.2 29.43 73.2 454 225 1496 -1.57 0.01 0.01 0.000
1:23am 356 1 2 44 97 71.6 73.2 29.43 73.2 454 225 1496 -1.54 0.01 0.01 0.000
1:24am 356 0 3 44 97 71.6 73.2 29.43 73.2 455 225 1497 -1.52 0.01 0.01 0.000
1:25am 356 1 3 44 97 71.6 73.1 29.43 73.1 455 224 1491 -1.59 0.01 0.01 0.000
1:26am 356 0 1 44 97 71.6 73.1 29.43 73.1 455 224 1491 -1.56 0.01 0.01 0.000
1:27am 356 0 1 44 97 71.6 73.0 29.43 73.0 457 224 1487 -1.64 0.01 0.01 0.000
1:28am 356 1 2 44 97 71.6 73.0 29.43 73.0 458 224 1488 -1.61 0.01 0.01 0.000
1:29am 356 1 2 44 97 71.6 73.1 29.43 73.1 460 224 1497 -1.48 0.01 0.01 0.000
1:30am 356 1 2 44 97 71.6 73.0 29.43 73.0 461 224 1491 -1.56 0.01 0.01 0.000
1:31am 356 0 1 44 97 71.6 72.9 29.43 72.9 460 224 1484 -1.63 0.01 0.01 0.000
1:32am 356 1 1 44 97 71.6 72.9 29.43 72.9 459 224 1483 -1.61 0.01 0.01 0.000
1:33am 356 1 1 44 97 71.6 72.9 29.43 72.9 459 224 1483 -1.58 0.01 0.01 0.000
1:34am 356 2 2 44 97 71.6 72.8 29.43 72.8 458 224 1475 -1.65 0.01 0.01 0.000
1:35am 356 0 2 44 97 71.6 72.8 29.43 72.8 460 224 1478 -1.63 0.01 0.01 0.000
1:36am 356 0 1 44 97 71.6 72.8 29.43 72.8 460 224 1478 -1.60 0.01 0.01 0.000
1:37am 356 0 1 44 97 71.6 72.8 29.43 72.8 460 224 1478 -1.57 0.01 0.01 0.000
1:38am 356 0 1 44 97 71.6 72.8 29.43 72.8 461 224 1479 -1.55 0.01 0.01 0.000
1:39am 356 0 1 44 97 71.6 72.8 29.43 72.8 458 224 1475 -1.52 0.01 0.01 0.000
1:40am 356 0 1 44 97 71.6 72.8 29.43 72.8 457 224 1474 -1.50 0.01 0.01 0.000
1:41am 356 1 1 44 97 71.6 72.7 29.43 72.7 456 224 1467 -1.57 0.01 0.01 0.000
1:42am 356 1 1 44 97 71.6 72.7 29.43 72.7 455 224 1466 -1.55 0.01 0.01 0.000
1:43am 356 1 1 44 97 71.6 72.7 29.43 72.7 455 224 1466 -1.52 0.01 0.01 0.000
1:44am 356 0 1 44 97 71.6 72.7 29.43 72.7 455 224 1466 -1.50 0.01 0.01 0.000
1:45am 356 0 1 44 97 71.6 72.7 29.43 72.7 455 224 1466 -1.47 0.01 0.01 0.000
1:46am 356 0 0 44 97 71.4 72.6 29.43 72.6 455 224 1459 -1.55 0.01 0.01 0.000
1:47am 356 1 1 44 97 71.4 72.6 29.43 72.6 455 224 1459 -1.52 0.01 0.01 0.000
1:48am 356 1 1 44 97 71.6 72.6 29.43 72.6 454 224 1458 -1.50 0.01 0.01 0.000
1:49am 356 1 1 44 97 71.6 72.7 29.43 72.7 454 224 1464 -1.37 0.01 0.01 0.000
1:50am 356 1 1 44 98 71.4 72.7 29.43 72.7 453 148 1463 -1.35 0.01 0.01 0.000
1:51am 356 0 1 44 98 71.4 72.6 29.43 72.6 453 148 1457 -1.43 0.01 0.01 0.000
1:52am 356 0 1 44 98 71.6 72.6 29.43 72.6 453 148 1456 -1.40 0.01 0.01 0.000
1:53am 356 0 1 44 98 71.6 72.6 29.43 72.6 453 148 1456 -1.38 0.01 0.01 0.000
1:54am 356 0 1 44 98 71.6 72.6 29.43 72.6 453 148 1456 -1.36 0.01 0.01 0.000
1:55am 356 0 1 44 98 71.6 72.6 29.43 72.6 452 148 1455 -1.34 0.01 0.01 0.000
1:56am 356 0 0 44 98 71.6 72.5 29.43 72.5 452 148 1448 -1.41 0.01 0.01 0.000
1:57am 356 1 1 44 98 71.6 72.5 29.44 72.5 451 148 1447 -1.39 0.01 0.01 0.000
1:58am 356 1 1 44 98 71.6 72.5 29.44 72.5 449 148 1445 -1.36 0.01 0.01 0.000
1:59am 356 0 1 44 98 71.6 72.5 29.44 72.5 447 148 1443 -1.34 0.01 0.01 0.000
2:00am 356 0 1 44 98 71.6 72.5 29.44 72.5 446 148 1442 -1.32 0.01 0.01 0.000
2:01am 356 0 0 44 98 71.6 72.5 29.44 72.5 446 148 1442 -1.30 0.01 0.01 0.000
2:02am 356 0 0 44 98 71.6 72.5 29.44 72.5 447 148 1443 -1.28 0.01 0.01 0.000
2:03am 356 0 0 44 98 71.6 72.5 29.44 72.5 448 148 1444 -1.26 0.01 0.01 0.000
2:04am 356 0 0 44 98 71.6 72.5 29.44 72.5 447 148 1443 -1.24 0.01 0.01 0.000
2:05am 356 0 0 44 98 71.6 72.5 29.44 72.5 448 148 1444 -1.21 0.01 0.01 0.000
2:06am 356 0 0 44 98 71.6 72.5 29.44 72.5 449 148 1445 -1.19 0.01 0.01 0.000
2:07am 356 0 0 44 98 71.6 72.4 29.44 72.4 450 148 1440 -1.27 0.01 0.01 0.000
2:08am 356 0 0 44 98 71.6 72.5 29.44 72.5 451 148 1447 -1.16 0.01 0.01 0.000
2:09am 356 0 0 44 98 71.8 72.5 29.44 72.5 450 148 1446 -1.14 0.01 0.01 0.000
2:10am 356 0 0 44 98 71.8 72.4 29.44 72.4 449 148 1439 -1.22 0.01 0.01 0.000
2:11am 356 1 1 44 98 71.8 72.4 29.44 72.4 449 148 1439 -1.20 0.01 0.01 0.000
2:12am 356 0 1 44 98 71.8 72.4 29.44 72.4 449 148 1439 -1.18 0.01 0.01 0.000
2:13am 356 2 2 44 98 71.8 72.4 29.44 72.4 449 148 1439 -1.16 0.01 0.01 0.000
2:14am 356 1 2 44 98 71.8 72.4 29.44 72.4 451 148 1441 -1.14 0.01 0.01 0.000
2:15am 356 1 2 44 98 71.8 72.4 29.44 72.4 451 148 1441 -1.12 0.01 0.01 0.000
2:16am 356 1 2 44 98 71.8 72.4 29.44 72.4 451 148 1441 -1.10 0.01 0.01 0.000
2:17am 356 0 2 44 98 71.8 72.4 29.44 72.4 448 148 1437 -1.08 0.01 0.01 0.000
2:18am 356 1 2 44 98 71.8 72.4 29.44 72.4 446 148 1435 -1.07 0.01 0.01 0.000
2:19am 356 1 2 44 98 71.8 72.4 29.44 72.4 443 148 1432 -1.05 0.02 0.02 0.000
2:20am 356 1 2 44 98 71.8 72.4 29.45 72.4 441 148 1428 -1.03 0.02 0.02 0.000
2:21am 356 1 1 44 98 71.8 72.4 29.45 72.4 440 148 1427 -1.02 0.02 0.02 0.000
2:22am 356 0 1 44 98 71.8 72.3 29.45 72.3 440 148 1421 -1.10 0.02 0.02 0.000
2:23am 356 0 1 44 98 71.6 72.3 29.45 72.3 440 148 1421 -1.08 0.02 0.02 0.000
2:24am 356 0 1 44 98 71.6 72.3 29.45 72.3 441 148 1422 -1.06 0.02 0.02 0.000
2:25am 356 0 1 44 98 71.6 72.3 29.45 72.3 441 148 1423 -1.05 0.02 0.02 0.000
2:26am 356 0 1 44 98 71.6 72.3 29.45 72.3 441 148 1423 -1.03 0.02 0.02 0.000
2:27am 356 0 1 44 98 71.6 72.3 29.45 72.3 441 148 1423 -1.01 0.02 0.02 0.000
2:28am 356 0 1 44 98 71.6 72.3 29.45 72.3 441 148 1422 -0.99 0.02 0.02 0.000
2:29am 356 1 1 44 98 71.6 72.3 29.45 72.3 441 148 1422 -0.98 0.02 0.02 0.000
2:30am 356 1 1 44 98 71.6 72.3 29.45 72.3 440 148 1421 -0.96 0.02 0.02 0.000
2:31am 356 1 1 44 98 71.6 72.2 29.45 72.2 440 148 1415 -1.05 0.02 0.02 0.000
2:32am 356 0 1 44 98 71.6 72.2 29.45 72.2 439 148 1413 -1.03 0.02 0.02 0.000
2:33am 356 1 1 44 98 71.6 72.2 29.45 72.2 438 148 1412 -1.01 0.02 0.02 0.000
2:34am 356 1 1 44 98 71.6 72.1 29.45 72.1 438 148 1406 -1.09 0.02 0.02 0.000
2:35am 356 1 1 44 98 71.6 72.1 29.45 72.1 438 148 1406 -1.08 0.02 0.02 0.000
2:36am 356 1 1 44 98 71.6 72.1 29.45 72.1 438 148 1406 -1.06 0.02 0.02 0.000
2:37am 356 0 1 44 98 71.6 72.0 29.45 72.0 437 148 1398 -1.14 0.02 0.02 0.000
2:38am 356 0 1 44 98 71.6 72.0 29.45 72.0 437 148 1398 -1.12 0.02 0.02 0.000
2:39am 356 0 1 44 98 71.6 72.0 29.45 72.0 437 148 1398 -1.10 0.02 0.02 0.000
2:40am 356 1 1 44 98 71.6 72.0 29.45 72.0 438 148 1400 -1.08 0.02 0.02 0.000
2:41am 356 0 1 44 98 71.8 71.9 29.45 71.9 438 148 1393 -1.16 0.02 0.02 0.000
2:42am 356 0 1 44 98 71.8 71.9 29.45 71.9 438 148 1393 -1.15 0.02 0.02 0.000
2:43am 356 0 1 44 99 71.8 71.9 29.45 71.9 437 73 1392 -1.13 0.02 0.02 0.000
2:44am 356 0 1 44 99 71.8 71.9 29.45 71.9 435 73 1390 -1.11 0.02 0.02 0.000
2:45am 356 0 1 44 99 71.8 71.9 29.45 71.9 433 73 1388 -1.09 0.02 0.02 0.000
2:46am 356 0 0 44 98 71.8 71.8 29.46 71.8 430 148 1378 -1.17 0.02 0.02 0.000
2:47am 356 0 0 44 98 71.8 71.8 29.46 71.8 429 148 1377 -1.15 0.02 0.02 0.000
2:48am 356 0 0 44 98 71.8 71.8 29.46 71.8 429 148 1376 -1.13 0.02 0.02 0.000
2:49am 356 0 0 44 99 71.8 71.7 29.46 71.7 428 73 1368 -1.21 0.02 0.02 0.000
2:50am 356 0 1 44 98 71.8 71.7 29.46 71.7 427 148 1367 -1.19 0.02 0.02 0.000
2:51am 356 0 0 44 98 71.8 71.7 29.46 71.7 428 148 1368 -1.17 0.02 0.02 0.000
2:52am 356 0 0 44 98 71.8 71.7 29.46 71.7 428 148 1368 -1.15 0.02 0.02 0.000
2:53am 356 0 0 44 98 71.8 71.7 29.46 71.7 427 148 1367 -1.13 0.02 0.02 0.000
2:54am 356 0 0 44 98 71.8 71.7 29.46 71.7 427 148 1367 -1.12 0.02 0.02 0.000
2:55am 356 0 0 44 98 71.9 71.6 29.46 71.6 426 148 1359 -1.20 0.02 0.02 0.000
2:56am 356 0 0 44 99 71.9 71.6 29.46 71.6 425 73 1358 -1.18 0.02 0.02 0.000
2:57am 356 1 1 44 98 71.9 71.6 29.46 71.6 426 148 1359 -1.16 0.02 0.02 0.000
2:58am 356 0 1 44 98 71.9 71.6 29.46 71.6 426 148 1359 -1.14 0.02 0.02 0.000
2:59am 356 0 1 44 99 71.9 71.5 29.46 71.5 425 73 1352 -1.22 0.02 0.02 0.000
3:00am 356 0 1 44 99 71.8 71.5 29.46 71.5 426 73 1353 -1.20 0.02 0.02 0.000
3:01am 356 0 0 44 99 71.9 71.5 29.46 71.5 426 73 1353 -1.18 0.02 0.02 0.000
3:02am 356 0 0 44 99 71.8 71.5 29.46 71.5 426 73 1353 -1.16 0.02 0.02 0.000
3:03am 356 0 0 44 99 71.8 71.5 29.46 71.5 426 73 1353 -1.14 0.02 0.02 0.000
3:04am 356 0 0 44 99 71.8 71.5 29.46 71.5 427 73 1354 -1.12 0.02 0.02 0.000
3:05am 356 0 0 44 99 71.8 71.4 29.46 71.4 426 73 1347 -1.20 0.02 0.02 0.000
3:06am 356 0 0 44 99 71.8 71.5 29.46 71.5 425 73 1352 -1.08 0.02 0.02 0.000
3:07am 356 0 0 44 99 71.8 71.5 29.46 71.5 425 73 1352 -1.06 0.02 0.02 0.000
3:08am 356 0 1 44 99 71.8 71.4 29.46 71.4 425 73 1346 -1.14 0.02 0.02 0.000
3:09am 356 0 1 44 99 71.8 71.4 29.46 71.4 426 73 1347 -1.13 0.02 0.02 0.000
3:10am 356 0 1 44 99 71.8 71.4 29.46 71.4 426 73 1347 -1.11 0.02 0.02 0.000
3:11am 356 0 0 44 99 71.8 71.4 29.46 71.4 426 73 1347 -1.09 0.02 0.02 0.000
3:12am 356 0 0 44 99 71.8 71.4 29.46 71.4 426 73 1347 -1.07 0.02 0.02 0.000
3:13am 356 0 0 44 99 71.8 71.4 29.46 71.4 426 73 1347 -1.05 0.02 0.02 0.000
3:14am 356 0 0 44 99 71.8 71.4 29.46 71.4 426 73 1347 -1.04 0.02 0.02 0.000
3:15am 356 0 0 44 99 71.8 71.3 29.46 71.3 426 73 1340 -1.12 0.02 0.02 0.000
3:16am 356 0 0 44 99 71.8 71.3 29.46 71.3 426 73 1340 -1.10 0.02 0.02 0.000
3:17am 356 0 0 44 99 71.8 71.3 29.46 71.3 426 73 1340 -1.08 0.02 0.02 0.000
3:18am 356 0 0 44 99 71.8 71.3 29.46 71.3 426 73 1340 -1.06 0.02 0.02 0.000
3:19am 356 0 0 45 99 71.8 71.3 29.46 71.3 426 73 1340 -1.05 0.02 0.02 0.000
3:20am 356 0 1 44 99 71.8 71.3 29.46 71.3 425 73 1339 -1.03 0.02 0.02 0.000
3:21am 356 1 1 44 99 71.8 71.3 29.46 71.3 425 73 1339 -1.01 0.02 0.02 0.000
3:22am 356 2 2 44 99 71.8 71.3 29.46 71.3 424 73 1338 -1.00 0.02 0.02 0.000
3:23am 356 1 2 44 99 71.8 71.3 29.46 71.3 424 73 1338 -0.98 0.02 0.02 0.000
3:24am 356 1 2 44 99 71.8 71.3 29.46 71.3 424 73 1338 -0.96 0.02 0.02 0.000
3:25am 356 0 2 44 99 71.8 71.3 29.46 71.3 424 73 1338 -0.95 0.02 0.02 0.000
3:26am 356 1 1 44 99 71.8 71.3 29.46 71.3 424 73 1338 -0.93 0.02 0.02 0.000
3:27am 356 0 1 44 99 71.9 71.3 29.46 71.3 425 73 1339 -0.92 0.02 0.02 0.000
3:28am 356 0 1 44 99 71.9 71.3 29.46 71.3 425 73 1339 -0.90 0.02 0.02 0.000
3:29am 356 0 1 44 99 71.9 71.2 29.46 71.2 425 73 1333 -0.98 0.02 0.02 0.000
3:30am 356 0 1 44 99 71.9 71.2 29.46 71.2 424 73 1332 -0.97 0.02 0.02 0.000
3:31am 356 0 0 44 99 71.9 71.2 29.47 71.2 423 73 1331 -0.95 0.02 0.02 0.000
3:32am 356 0 0 44 99 71.9 71.2 29.47 71.2 423 73 1331 -0.94 0.02 0.02 0.000
3:33am 356 1 1 44 99 71.9 71.2 29.47 71.2 423 73 1331 -0.92 0.02 0.02 0.000
3:34am 356 0 1 44 99 71.9 71.1 29.47 71.1 422 73 1323 -1.00 0.02 0.02 0.000
3:35am 356 0 1 44 99 71.9 71.1 29.47 71.1 423 73 1324 -0.99 0.02 0.02 0.000
3:36am 356 0 0 44 99 71.9 71.1 29.47 71.1 423 73 1324 -0.97 0.02 0.02 0.000
3:37am 356 0 0 44 99 71.9 71.0 29.47 71.0 423 73 1318 -1.05 0.02 0.02 0.000
3:38am 356 0 0 44 99 71.9 71.0 29.47 71.0 422 73 1317 -1.04 0.02 0.02 0.000
3:39am 356 0 0 44 99 71.9 71.0 29.47 71.0 422 73 1317 -1.02 0.02 0.02 0.000
3:40am 356 0 0 44 99 71.9 71.0 29.47 71.0 421 73 1316 -1.00 0.02 0.02 0.000
3:41am 356 0 0 44 99 71.9 70.9 29.47 70.9 421 73 1309 -1.08 0.02 0.02 0.000
3:42am 356 0 0 44 99 71.9 70.9 29.47 70.9 421 73 1309 -1.07 0.02 0.02 0.000
3:43am 356 0 0 44 99 71.9 70.9 29.47 70.9 422 73 1310 -1.05 0.02 0.02 0.000
3:44am 356 0 0 44 99 71.9 70.8 29.47 70.8 423 73 1305 -1.13 0.02 0.02 0.000
3:45am 356 0 0 44 99 71.9 70.8 29.47 70.8 423 73 1305 -1.11 0.02 0.02 0.000
3:46am 356 0 0 44 99 71.9 70.8 29.47 70.8 423 73 1305 -1.09 0.02 0.02 0.000
3:47am 356 0 0 44 99 71.9 70.8 29.47 70.8 422 73 1304 -1.08 0.02 0.02 0.000
3:48am 356 0 0 44 99 71.9 70.8 29.47 70.8 422 73 1304 -1.06 0.02 0.02 0.000
3:49am 356 0 0 44 99 71.9 70.8 29.47 70.8 422 73 1304 -1.04 0.02 0.02 0.000
3:50am 356 0 0 44 99 71.9 70.7 29.47 70.7 421 73 1296 -1.12 0.02 0.02 0.000
3:51am 356 0 0 44 99 71.9 70.7 29.47 70.7 421 73 1296 -1.11 0.02 0.02 0.000
3:52am 356 0 0 44 99 71.9 70.7 29.47 70.7 421 73 1296 -1.09 0.02 0.02 0.000
3:53am 356 0 0 44 99 71.9 70.7 29.47 70.7 421 73 1296 -1.07 0.02 0.02 0.000
3:54am 356 0 0 44 99 71.9 70.7 29.47 70.7 421 73 1296 -1.05 0.02 0.02 0.000
3:55am 356 0 0 44 99 71.9 70.7 29.47 70.7 421 73 1296 -1.03 0.02 0.02 0.000
3:56am 356 0 0 44 99 71.9 70.7 29.47 70.7 421 73 1296 -1.02 0.02 0.02 0.000
3:57am 356 0 0 44 99 71.9 70.7 29.47 70.7 420 73 1295 -1.00 0.02 0.02 0.000
3:58am 356 0 0 44 99 71.9 70.8 29.47 70.8 421 73 1303 -0.88 0.02 0.02 0.000
3:59am 356 0 0 44 99 71.9 70.8 29.47 70.8 421 73 1303 -0.87 0.02 0.02 0.000
4:00am 356 0 0 44 99 71.9 70.8 29.47 70.8 421 73 1303 -0.86 0.02 0.02 0.000
4:01am 356 0 0 44 99 71.9 70.8 29.47 70.8 422 73 1304 -0.84 0.02 0.02 0.000
4:02am 356 0 0 44 100 71.9 70.9 29.47 70.9 423 0 1311 -0.73 0.02 0.02 0.000
4:03am 356 0 0 44 99 71.9 71.0 29.47 71.0 423 73 1318 -0.62 0.02 0.02 0.000
4:04am 356 0 0 44 99 71.9 71.0 29.47 71.0 423 73 1318 -0.61 0.02 0.02 0.000
4:05am 356 0 0 44 99 71.9 70.9 29.47 70.9 422 73 1310 -0.70 0.02 0.02 0.000
4:06am 356 0 0 44 99 71.9 70.9 29.47 70.9 421 73 1309 -0.69 0.02 0.02 0.000
4:07am 356 0 0 44 99 71.9 71.0 29.47 71.0 420 73 1314 -0.57 0.02 0.02 0.000
4:08am 356 0 0 44 99 71.9 70.9 29.47 70.9 421 73 1309 -0.66 0.02 0.02 0.000
4:09am 356 0 0 44 99 71.9 71.0 29.47 71.0 422 73 1317 -0.55 0.02 0.02 0.000
4:10am 356 0 0 44 99 71.9 70.9 29.47 70.9 422 73 1310 -0.64 0.02 0.02 0.000
4:11am 356 0 0 44 99 72.1 70.8 29.47 70.8 422 73 1304 -0.73 0.02 0.02 0.000
4:12am 356 0 0 44 99 72.1 70.9 29.47 70.9 422 73 1310 -0.62 0.02 0.02 0.000
4:13am 356 0 0 44 99 72.1 70.9 29.47 70.9 421 73 1309 -0.61 0.02 0.02 0.000
4:14am 356 0 0 44 99 72.1 70.8 29.47 70.8 420 73 1302 -0.70 0.02 0.02 0.000
4:15am 356 0 0 44 99 72.1 70.8 29.47 70.8 418 73 1299 -0.69 0.02 0.02 0.000
4:16am 356 0 0 44 99 72.1 70.8 29.47 70.8 418 73 1299 -0.67 0.02 0.02 0.000
4:17am 356 0 0 44 99 72.1 70.8 29.47 70.8 418 73 1298 -0.66 0.02 0.02 0.000
4:18am 356 0 0 44 99 72.1 70.8 29.47 70.8 418 73 1298 -0.65 0.02 0.02 0.000
4:19am 356 0 0 44 99 72.1 70.8 29.47 70.8 418 73 1298 -0.64 0.02 0.02 0.000
4:20am 356 0 0 44 99 72.1 70.7 29.47 70.7 417 73 1291 -0.73 0.02 0.02 0.000
4:21am 356 0 0 44 99 72.1 70.7 29.47 70.7 417 73 1291 -0.72 0.02 0.02 0.000
4:22am 356 0 0 44 99 72.1 70.7 29.47 70.7 418 73 1292 -0.71 0.02 0.02 0.000
4:23am 356 0 0 44 99 72.1 70.7 29.47 70.7 416 73 1290 -0.70 0.02 0.02 0.000
4:24am 356 0 0 44 99 72.1 70.7 29.47 70.7 417 73 1291 -0.68 0.02 0.02 0.000
4:25am 356 0 0 44 99 72.1 70.7 29.47 70.7 416 73 1290 -0.67 0.02 0.02 0.000
4:26am 356 0 0 44 99 72.1 70.7 29.47 70.7 415 73 1289 -0.66 0.02 0.02 0.000
4:27am 356 0 0 44 99 72.1 70.6 29.48 70.6 414 73 1281 -0.75 0.02 0.02 0.000
4:28am 356 0 0 44 99 72.1 70.7 29.48 70.7 414 73 1287 -0.64 0.02 0.02 0.000
4:29am 356 0 0 44 99 72.1 70.7 29.48 70.7 414 73 1287 -0.63 0.02 0.02 0.000
4:30am 356 0 0 44 99 72.1 70.6 29.48 70.6 413 73 1280 -0.72 0.02 0.02 0.000
4:31am 356 0 0 44 99 72.1 70.6 29.48 70.6 414 73 1281 -0.71 0.02 0.02 0.000
4:32am 356 0 0 44 99 72.1 70.6 29.47 70.6 415 73 1282 -0.70 0.02 0.02 0.000
4:33am 356 0 0 44 99 72.1 70.6 29.48 70.6 414 73 1281 -0.68 0.02 0.02 0.000
4:34am 356 0 0 44 99 72.1 70.6 29.48 70.6 414 73 1281 -0.67 0.02 0.02 0.000
4:35am 356 0 0 44 99 71.9 70.7 29.48 70.7 414 73 1287 -0.56 0.02 0.02 0.000
4:36am 356 0 0 44 99 71.9 70.6 29.48 70.6 414 73 1281 -0.65 0.02 0.02 0.000
4:37am 356 0 0 44 99 71.9 70.6 29.47 70.6 416 73 1283 -0.64 0.02 0.02 0.000
4:38am 356 0 0 44 99 71.9 70.6 29.47 70.6 416 73 1283 -0.63 0.02 0.02 0.000
4:39am 356 0 0 44 100 71.9 70.6 29.47 70.6 418 0 1286 -0.62 0.02 0.02 0.000
4:40am 356 0 0 44 100 71.9 70.6 29.47 70.6 418 0 1286 -0.61 0.02 0.02 0.000
4:41am 356 0 0 44 100 71.9 70.6 29.47 70.6 419 0 1288 -0.60 0.02 0.02 0.000
4:42am 356 0 0 44 100 71.9 70.6 29.47 70.6 418 0 1287 -0.59 0.02 0.02 0.000
4:43am 356 0 0 44 100 71.9 70.7 29.47 70.7 419 0 1294 -0.48 0.02 0.02 0.000
4:44am 356 0 0 44 100 71.9 70.7 29.47 70.7 419 0 1294 -0.47 0.02 0.02 0.000
4:45am 356 0 0 44 100 71.9 70.6 29.47 70.6 418 0 1287 -0.57 0.02 0.02 0.000
4:46am 356 0 0 44 100 72.1 70.6 29.47 70.6 418 0 1287 -0.56 0.02 0.02 0.000
4:47am 356 0 0 44 100 72.1 70.6 29.47 70.6 418 0 1287 -0.55 0.02 0.02 0.000
4:48am 356 0 0 44 100 72.1 70.6 29.47 70.6 418 0 1287 -0.54 0.02 0.02 0.000
4:49am 356 0 0 44 100 72.1 70.6 29.47 70.6 418 0 1287 -0.53 0.02 0.02 0.000
4:50am 356 0 0 44 100 72.1 70.6 29.47 70.6 417 0 1284 -0.52 0.02 0.02 0.000
4:51am 356 0 0 44 100 72.1 70.6 29.47 70.6 418 0 1286 -0.51 0.02 0.02 0.000
4:52am 356 0 0 44 100 72.1 70.5 29.47 70.5 417 0 1278 -0.60 0.02 0.02 0.000
4:53am 356 0 0 44 100 72.1 70.6 29.47 70.6 418 0 1286 -0.49 0.02 0.02 0.000
4:54am 356 0 0 44 99 72.1 70.5 29.47 70.5 418 73 1279 -0.58 0.02 0.02 0.000
4:55am 356 0 0 44 99 72.1 70.5 29.47 70.5 418 73 1279 -0.58 0.02 0.02 0.000
4:56am 356 0 0 44 100 72.1 70.6 29.47 70.6 418 0 1286 -0.47 0.02 0.02 0.000
4:57am 356 0 0 44 99 72.1 70.5 29.47 70.5 418 73 1280 -0.56 0.02 0.02 0.000
4:58am 356 0 0 44 99 72.1 70.5 29.47 70.5 419 73 1281 -0.55 0.02 0.02 0.000
4:59am 356 0 0 44 99 72.1 70.5 29.47 70.5 419 73 1281 -0.54 0.02 0.02 0.000
5:00am 356 0 0 44 99 72.1 70.5 29.47 70.5 419 73 1281 -0.53 0.02 0.02 0.000
5:01am 356 0 0 44 99 72.3 70.5 29.47 70.5 419 73 1281 -0.52 0.02 0.02 0.000
5:02am 356 0 0 44 99 72.3 70.5 29.47 70.5 418 73 1280 -0.51 0.02 0.02 0.000
5:03am 356 0 0 44 99 72.3 70.5 29.47 70.5 419 73 1281 -0.50 0.02 0.02 0.000
5:04am 356 0 0 44 99 72.3 70.5 29.47 70.5 418 73 1280 -0.50 0.02 0.02 0.000
5:05am 356 0 0 44 99 72.3 70.4 29.47 70.4 418 73 1274 -0.59 0.02 0.02 0.000
5:06am 356 0 0 44 99 72.3 70.4 29.47 70.4 418 73 1274 -0.58 0.02 0.02 0.000
5:07am 356 0 0 44 99 72.3 70.4 29.47 70.4 420 73 1276 -0.57 0.02 0.02 0.000
5:08am 356 0 0 44 99 72.3 70.4 29.47 70.4 420 73 1276 -0.56 0.02 0.02 0.000
5:09am 356 0 0 44 99 72.3 70.4 29.47 70.4 420 73 1276 -0.55 0.02 0.02 0.000
5:10am 356 0 0 44 99 72.3 70.4 29.47 70.4 420 73 1276 -0.54 0.02 0.02 0.000
5:11am 356 0 0 44 99 72.3 70.5 29.47 70.5 419 73 1281 -0.43 0.02 0.02 0.000
5:12am 356 0 0 44 100 72.3 70.4 29.47 70.4 418 0 1274 -0.52 0.02 0.02 0.000
5:13am 356 0 0 44 100 72.3 70.4 29.47 70.4 418 0 1273 -0.51 0.02 0.02 0.000
5:14am 356 0 0 44 100 72.3 70.4 29.47 70.4 418 0 1274 -0.50 0.02 0.02 0.000
5:15am 356 0 0 44 100 72.3 70.4 29.47 70.4 419 0 1275 -0.50 0.02 0.02 0.000
5:16am 356 0 0 44 100 72.3 70.4 29.47 70.4 419 0 1275 -0.49 0.02 0.02 0.000
5:17am 356 0 0 44 100 72.3 70.4 29.47 70.4 418 0 1274 -0.48 0.02 0.02 0.000
5:18am 356 0 0 44 100 72.3 70.4 29.47 70.4 418 0 1274 -0.47 0.02 0.02 0.000
5:19am 356 0 0 44 100 72.3 70.4 29.47 70.4 418 0 1274 -0.46 0.02 0.02 0.000
5:20am 356 0 0 44 100 72.3 70.4 29.47 70.4 418 0 1273 -0.46 0.02 0.02 0.000
5:21am 356 0 0 44 100 72.3 70.4 29.47 70.4 418 0 1273 -0.45 0.02 0.02 0.000
5:22am 356 0 0 44 100 72.3 70.4 29.47 70.4 418 0 1273 -0.44 0.02 0.02 0.000
5:23am 356 0 0 44 100 72.3 70.4 29.47 70.4 417 0 1272 -0.43 0.02 0.02 0.000
5:24am 356 0 0 44 100 72.3 70.4 29.47 70.4 417 0 1272 -0.43 0.02 0.02 0.000
5:25am 356 0 0 44 100 72.3 70.4 29.47 70.4 416 0 1270 -0.42 0.02 0.02 0.000
5:26am 356 0 0 44 100 72.3 70.4 29.47 70.4 415 0 1269 -0.41 0.02 0.02 0.000
5:27am 356 0 0 44 100 72.3 70.4 29.47 70.4 415 0 1269 -0.41 0.02 0.02 0.000
5:28am 356 0 0 44 100 72.3 70.4 29.47 70.4 416 0 1270 -0.40 0.02 0.02 0.000
5:29am 356 0 0 44 100 72.3 70.4 29.47 70.4 416 0 1270 -0.39 0.02 0.02 0.000
5:30am 356 0 0 44 100 72.3 70.3 29.47 70.3 416 0 1264 -0.49 0.02 0.02 0.000
5:31am 356 0 0 44 100 72.3 70.3 29.47 70.3 417 0 1265 -0.48 0.02 0.02 0.000
5:32am 356 0 0 44 100 72.3 70.4 29.47 70.4 417 0 1272 -0.37 0.02 0.02 0.000
5:33am 356 0 0 44 100 72.3 70.3 29.47 70.3 416 0 1264 -0.46 0.02 0.02 0.000
5:34am 356 0 0 44 100 72.3 70.3 29.47 70.3 416 0 1264 -0.46 0.02 0.02 0.000
5:35am 356 0 0 44 100 72.3 70.3 29.47 70.3 416 0 1264 -0.45 0.02 0.02 0.000
5:36am 356 0 0 45 100 72.3 70.3 29.47 70.3 416 0 1264 -0.44 0.02 0.02 0.000
5:37am 356 0 0 44 100 72.3 70.3 29.47 70.3 416 0 1264 -0.43 0.02 0.02 0.000
5:38am 356 0 0 44 100 72.3 70.3 29.47 70.3 415 0 1263 -0.43 0.02 0.02 0.000
5:39am 356 0 0 44 100 72.3 70.3 29.47 70.3 415 0 1263 -0.42 0.02 0.02 0.000
5:40am 356 0 0 44 100 72.3 70.2 29.48 70.2 414 0 1255 -0.51 0.02 0.02 0.000
5:41am 356 0 0 44 100 72.3 70.3 29.48 70.3 413 0 1261 -0.41 0.02 0.02 0.000
5:42am 356 0 0 44 100 72.3 70.2 29.48 70.2 413 0 1254 -0.50 0.02 0.02 0.000
5:43am 356 0 0 44 100 72.3 70.3 29.48 70.3 413 0 1261 -0.39 0.02 0.02 0.000
5:44am 356 0 0 44 100 72.3 70.2 29.48 70.2 413 0 1254 -0.48 0.02 0.02 0.000
5:45am 356 0 0 44 100 72.3 70.2 29.48 70.2 413 0 1254 -0.47 0.02 0.02 0.000
5:46am 356 0 0 44 100 72.3 70.3 29.48 70.3 413 0 1261 -0.37 0.02 0.02 0.000
5:47am 356 0 0 44 100 72.3 70.2 29.48 70.2 413 0 1254 -0.46 0.02 0.02 0.000
5:48am 356 0 0 44 100 72.3 70.2 29.48 70.2 413 0 1254 -0.45 0.02 0.02 0.000
5:49am 356 0 0 44 100 72.3 70.2 29.48 70.2 411 0 1252 -0.44 0.02 0.02 0.000
5:50am 356 0 0 44 100 72.3 70.2 29.48 70.2 411 0 1252 -0.44 0.02 0.02 0.000
5:51am 356 0 0 44 100 72.4 70.2 29.48 70.2 411 0 1252 -0.43 0.02 0.02 0.000
5:52am 356 0 0 44 100 72.4 70.2 29.48 70.2 411 0 1252 -0.42 0.02 0.02 0.000
5:53am 356 0 0 44 100 72.4 70.1 29.48 70.1 411 0 1246 -0.51 0.02 0.02 0.000
5:54am 356 0 0 44 100 72.4 70.1 29.48 70.1 411 0 1246 -0.51 0.02 0.02 0.000
5:55am 356 0 0 44 100 72.4 70.1 29.48 70.1 411 0 1246 -0.50 0.02 0.02 0.000
5:56am 356 0 0 44 100 72.4 70.1 29.48 70.1 411 0 1246 -0.49 0.02 0.02 0.000
5:57am 356 0 0 44 100 72.4 70.1 29.48 70.1 411 0 1246 -0.48 0.02 0.02 0.000
5:58am 356 0 0 44 100 72.4 70.1 29.48 70.1 411 0 1246 -0.47 0.02 0.02 0.000
5:59am 356 0 0 44 100 72.4 70.1 29.48 70.1 411 0 1246 -0.46 0.02 0.02 0.000
6:00am 356 0 0 44 100 72.4 70.1 29.48 70.1 411 0 1246 -0.46 0.02 0.02 0.000
6:01am 356 0 0 44 100 72.4 70.0 29.48 70.0 411 0 1239 -0.55 0.02 0.02 0.000
6:02am 356 0 0 44 100 72.4 70.1 29.48 70.1 411 0 1246 -0.44 0.02 0.02 0.000
6:03am 356 0 0 44 100 72.4 70.0 29.48 70.0 411 0 1239 -0.53 0.02 0.02 0.000
6:04am 356 0 0 44 100 72.4 70.0 29.48 70.0 411 0 1239 -0.52 0.02 0.02 0.000
6:05am 356 0 0 44 100 72.4 70.1 29.48 70.1 411 0 1246 -0.41 0.02 0.02 0.000
6:06am 356 0 0 44 100 72.6 70.0 29.48 70.0 411 0 1239 -0.51 0.02 0.02 0.000
6:07am 356 0 0 44 100 72.6 70.0 29.48 70.0 411 0 1239 -0.50 0.02 0.02 0.000
6:08am 356 0 0 44 100 72.6 70.0 29.48 70.0 411 0 1239 -0.49 0.02 0.02 0.000
6:09am 356 0 0 44 100 72.8 70.0 29.48 70.0 411 0 1239 -0.48 0.02 0.02 0.000
6:10am 356 0 0 44 100 72.8 70.0 29.48 70.0 411 0 1239 -0.47 0.02 0.02 0.000
6:11am 356 0 0 44 100 73.0 70.1 29.48 70.1 411 0 1246 -0.37 0.02 0.02 0.000
6:12am 356 0 0 44 100 73.1 70.1 29.48 70.1 411 0 1246 -0.36 0.02 0.02 0.000
6:13am 356 0 0 44 100 73.0 70.1 29.48 70.1 411 0 1246 -0.35 0.02 0.02 0.000
6:14am 356 0 0 44 100 73.0 70.1 29.48 70.1 411 0 1246 -0.35 0.02 0.02 0.000
6:15am 356 0 0 44 100 72.8 70.1 29.48 70.1 411 0 1246 -0.34 0.02 0.02 0.000
6:16am 356 0 0 44 100 72.8 70.2 29.48 70.2 411 0 1252 -0.24 0.02 0.02 0.000
6:17am 356 0 0 44 100 72.8 70.1 29.48 70.1 411 0 1246 -0.33 0.02 0.02 0.000
6:18am 356 0 0 44 100 72.8 70.2 29.48 70.2 411 0 1252 -0.23 0.02 0.02 0.000
6:19am 356 0 0 44 100 72.8 70.1 29.48 70.1 411 0 1246 -0.33 0.02 0.02 0.000
6:20am 356 0 0 44 100 72.8 70.2 29.48 70.2 411 0 1252 -0.22 0.02 0.02 0.000
6:21am 356 0 0 44 100 72.8 70.2 29.48 70.2 411 0 1252 -0.22 0.02 0.02 0.000
6:22am 356 0 0 44 100 72.8 70.2 29.48 70.2 411 0 1252 -0.21 0.02 0.02 0.000
6:23am 356 0 0 44 100 72.8 70.2 29.48 70.2 410 0 1251 -0.21 0.02 0.02 0.000
6:24am 356 0 0 44 100 72.8 70.1 29.48 70.1 410 0 1245 -0.30 0.02 0.02 0.000
6:25am 356 0 0 44 100 72.8 70.1 29.48 70.1 409 0 1243 -0.30 0.02 0.02 0.000
6:26am 356 0 0 44 100 72.8 70.1 29.48 70.1 409 0 1243 -0.29 0.02 0.02 0.000
6:27am 356 0 0 44 100 72.8 70.1 29.48 70.1 408 0 1242 -0.29 0.02 0.02 0.000
6:28am 356 0 0 44 100 72.8 70.1 29.48 70.1 406 0 1240 -0.28 0.02 0.02 0.000
6:29am 356 0 0 44 100 72.8 70.0 29.48 70.0 406 0 1234 -0.38 0.02 0.02 0.000
6:30am 356 0 0 44 100 72.8 70.0 29.49 70.0 405 0 1231 -0.37 0.02 0.02 0.000
6:31am 356 0 0 44 100 72.8 70.0 29.49 70.0 404 0 1230 -0.37 0.02 0.02 0.000
6:32am 356 0 0 44 100 72.8 70.0 29.49 70.0 405 0 1231 -0.36 0.02 0.02 0.000
6:33am 356 0 0 44 100 73.0 69.9 29.49 69.9 405 0 1225 -0.45 0.02 0.02 0.000
6:34am 356 0 0 44 100 72.8 69.9 29.49 69.9 404 0 1224 -0.45 0.02 0.02 0.000
6:35am 356 0 0 44 100 73.0 69.9 29.49 69.9 404 0 1224 -0.44 0.02 0.02 0.000
6:36am 356 0 0 44 100 73.0 70.0 29.49 70.0 403 0 1229 -0.33 0.02 0.02 0.000
6:37am 356 0 0 44 100 73.0 69.9 29.49 69.9 405 0 1225 -0.42 0.02 0.02 0.000
6:38am 356 0 0 44 100 73.0 70.0 29.49 70.0 405 0 1231 -0.32 0.02 0.02 0.000
6:39am 356 0 0 44 100 73.0 69.9 29.48 69.9 406 0 1226 -0.41 0.02 0.02 0.000
6:40am 356 0 0 44 100 73.0 69.9 29.48 69.9 406 0 1227 -0.40 0.02 0.02 0.000
6:41am 356 0 0 44 100 73.0 69.9 29.48 69.9 407 0 1228 -0.40 0.02 0.02 0.000
6:42am 356 0 0 44 100 73.0 69.9 29.48 69.9 407 0 1228 -0.39 0.02 0.02 0.000
6:43am 356 0 0 44 100 73.0 69.9 29.48 69.9 407 0 1228 -0.38 0.02 0.02 0.000
6:44am 356 0 0 44 100 73.0 69.9 29.48 69.9 406 0 1226 -0.38 0.02 0.02 0.000
6:45am 356 0 0 44 100 73.0 69.9 29.48 69.9 406 0 1226 -0.37 0.02 0.02 0.000
6:46am 356 0 0 44 100 73.0 69.9 29.48 69.9 406 0 1227 -0.37 0.02 0.02 0.000
6:47am 356 0 0 44 100 73.0 69.9 29.48 69.9 406 0 1226 -0.36 0.02 0.02 0.000
6:48am 356 0 0 44 100 73.0 69.9 29.48 69.9 406 0 1226 -0.35 0.02 0.02 0.000
6:49am 356 0 0 44 100 73.0 69.9 29.48 69.9 406 0 1227 -0.35 0.02 0.02 0.000
6:50am 356 0 0 44 100 73.0 69.9 29.48 69.9 407 0 1228 -0.34 0.02 0.02 0.000
6:51am 356 0 0 44 100 73.0 69.9 29.48 69.9 407 0 1228 -0.33 0.02 0.02 0.000
6:52am 356 0 0 44 100 73.1 69.8 29.48 69.8 409 0 1224 -0.43 0.02 0.02 0.000
6:53am 356 0 0 44 100 73.1 69.9 29.48 69.9 409 0 1231 -0.32 0.02 0.02 0.000
6:54am 356 0 0 44 100 73.1 69.9 29.48 69.9 410 0 1232 -0.31 0.02 0.02 0.000
6:55am 10 2 3 44 100 73.1 69.9 29.48 69.9 409 0 1231 -0.31 0.02 0.02 0.000
6:56am 10 1 3 44 100 73.1 69.9 29.48 69.9 409 0 1231 -0.30 0.02 0.02 0.000
6:57am 10 1 3 44 100 73.1 69.9 29.48 69.9 409 0 1231 -0.30 0.02 0.02 0.000
6:58am 10 0 3 44 100 73.1 70.0 29.48 70.0 408 0 1236 -0.19 0.02 0.02 0.000
6:59am 10 1 3 44 100 73.1 70.0 29.48 70.0 407 0 1235 -0.19 0.02 0.02 0.000
7:00am 10 2 3 44 100 73.1 69.9 29.48 69.9 406 0 1227 -0.29 0.02 0.02 0.000
7:01am 10 1 2 44 100 73.1 70.0 29.48 70.0 406 0 1234 -0.18 0.02 0.02 0.000
7:02am 10 0 2 44 100 73.1 70.0 29.48 70.0 406 0 1234 -0.18 0.02 0.02 0.000
7:03am 10 1 2 44 100 73.1 70.0 29.48 70.0 406 0 1234 -0.18 0.02 0.02 0.000
7:04am 10 0 2 44 100 73.1 70.0 29.48 70.0 407 0 1235 -0.17 0.02 0.02 0.000
7:05am 10 1 2 44 100 73.1 70.0 29.48 70.0 407 0 1235 -0.17 0.02 0.02 0.000
7:06am 10 1 2 44 100 73.1 70.0 29.48 70.0 406 0 1234 -0.17 0.02 0.02 0.000
7:07am 10 1 2 44 100 73.1 70.1 29.48 70.1 406 0 1240 -0.07 0.02 0.02 0.000
7:08am 10 1 2 45 100 73.3 70.1 29.48 70.1 406 0 1239 -0.07 0.02 0.02 0.000
7:09am 10 0 2 44 100 73.3 70.1 29.49 70.1 404 0 1237 -0.07 0.02 0.02 0.000
7:10am 10 2 2 44 100 73.3 70.1 29.49 70.1 404 0 1237 -0.06 0.02 0.02 0.000
7:11am 10 1 2 45 100 73.3 70.2 29.49 70.2 403 0 1242 0.03 0.02 0.02 0.000
7:12am 10 2 2 44 100 73.3 70.2 29.49 70.2 402 0 1241 0.03 0.02 0.02 0.000
7:13am 69 2 3 44 100 73.3 70.2 29.49 70.2 403 0 1242 0.03 0.02 0.02 0.000
7:14am 80 1 4 44 100 73.3 70.2 29.49 70.2 403 0 1242 0.03 0.02 0.02 0.000
7:15am 80 0 4 44 100 73.3 70.3 29.49 70.3 404 0 1249 0.13 0.02 0.02 0.000
7:16am 80 0 1 44 100 73.3 70.3 29.49 70.3 403 0 1248 0.13 0.02 0.02 0.000
7:17am 80 1 2 45 100 73.3 70.3 29.49 70.3 403 0 1248 0.13 0.02 0.02 0.000
7:18am 80 2 5 45 100 73.3 70.3 29.49 70.3 403 0 1248 0.13 0.02 0.02 0.000
7:19am 77 5 7 45 100 73.3 70.3 29.49 70.3 402 0 1247 0.12 0.02 0.02 0.000
7:20am 64 2 7 44 100 73.3 70.3 29.49 70.3 400 0 1245 0.12 0.02 0.02 0.000
7:21am 64 2 2 45 100 73.3 70.3 29.49 70.3 400 0 1245 0.12 0.02 0.02 0.000
7:22am 64 0 2 45 100 73.5 70.4 29.49 70.4 400 0 1251 0.22 0.02 0.02 0.000
7:23am 64 1 2 45 100 73.5 70.4 29.49 70.4 403 0 1255 0.21 0.02 0.02 0.000
7:24am 64 2 2 45 100 73.5 70.4 29.49 70.4 404 0 1256 0.21 0.02 0.02 0.000
7:25am 64 2 3 45 100 73.5 70.4 29.49 70.4 405 0 1257 0.21 0.02 0.02 0.000
7:26am 64 0 3 45 100 73.5 70.4 29.49 70.4 405 0 1257 0.20 0.02 0.02 0.000
7:27am 64 0 3 45 100 73.5 70.4 29.48 70.4 406 0 1258 0.20 0.02 0.02 0.000
7:28am 64 0 3 44 100 73.5 70.4 29.48 70.4 406 0 1258 0.20 0.02 0.02 0.000
7:29am 64 2 3 45 100 73.5 70.4 29.49 70.4 405 0 1257 0.19 0.02 0.02 0.000
7:30am 64 1 3 45 100 73.5 70.5 29.49 70.5 404 0 1262 0.29 0.02 0.02 0.000
7:31am 64 0 1 45 100 73.5 70.4 29.49 70.4 402 0 1254 0.18 0.02 0.02 0.000
7:32am 64 0 1 45 100 73.5 70.5 29.49 70.5 400 0 1258 0.28 0.02 0.02 0.000
7:33am 64 0 1 45 100 73.5 70.5 29.49 70.5 401 0 1259 0.28 0.02 0.02 0.000
7:34am 81 5 5 45 100 73.5 70.4 29.49 70.4 402 0 1254 0.17 0.02 0.02 0.000
7:35am 78 2 5 45 100 73.5 70.4 29.49 70.4 402 0 1254 0.17 0.02 0.02 0.000
7:36am 78 3 4 45 100 73.5 70.5 29.49 70.5 403 0 1261 0.26 0.02 0.02 0.000
7:37am 79 1 4 45 100 73.5 70.4 29.49 70.4 403 0 1255 0.16 0.02 0.02 0.000
7:38am 79 4 4 45 100 73.6 70.4 29.49 70.4 405 0 1257 0.16 0.02 0.02 0.000
7:39am 79 2 4 45 100 73.6 70.3 29.49 70.3 402 0 1247 0.06 0.02 0.02 0.000
7:40am 79 2 4 45 100 73.6 70.4 29.49 70.4 402 0 1254 0.15 0.02 0.02 0.000
7:41am 79 1 3 45 100 73.6 70.3 29.49 70.3 401 0 1246 0.05 0.02 0.02 0.000
7:42am 79 2 3 45 100 73.6 70.3 29.49 70.3 401 0 1246 0.05 0.02 0.02 0.000
7:43am 79 1 3 45 100 73.6 70.4 29.49 70.4 400 0 1251 0.15 0.02 0.02 0.000
7:44am 79 2 3 45 100 73.6 70.4 29.49 70.4 400 0 1251 0.15 0.02 0.02 0.000
7:45am 79 1 4 45 100 73.6 70.4 29.49 70.4 400 0 1251 0.15 0.02 0.02 0.000
7:46am 79 1 2 45 100 73.6 70.4 29.49 70.4 400 0 1251 0.14 0.02 0.02 0.000
7:47am 79 1 3 45 100 73.6 70.4 29.49 70.4 404 0 1256 0.14 0.02 0.02 0.000
7:48am 79 2 4 45 100 73.6 70.5 29.48 70.5 406 0 1264 0.24 0.02 0.02 0.000
7:49am 79 1 4 45 100 73.6 70.5 29.48 70.5 406 0 1266 0.23 0.02 0.02 0.000
7:50am 79 1 4 45 100 73.6 70.5 29.48 70.5 406 0 1266 0.23 0.02 0.02 0.000
7:51am 81 2 5 45 100 73.6 70.6 29.48 70.6 406 0 1271 0.33 0.02 0.02 0.000
7:52am 81 0 5 45 100 73.8 70.6 29.49 70.6 405 0 1270 0.32 0.02 0.02 0.000
7:53am 81 2 5 46 100 73.8 70.6 29.49 70.6 405 0 1270 0.32 0.02 0.02 0.000
7:54am 81 2 5 45 100 73.8 70.6 29.49 70.6 405 0 1270 0.31 0.02 0.02 0.000
7:55am 81 1 5 45 100 73.8 70.6 29.49 70.6 404 0 1269 0.31 0.02 0.02 0.000
7:56am 81 1 2 45 100 73.8 70.7 29.49 70.7 402 0 1273 0.40 0.02 0.02 0.000
7:57am 81 1 2 45 100 73.8 70.7 29.49 70.7 401 0 1272 0.39 0.02 0.02 0.000
7:58am 81 2 2 45 100 73.8 70.7 29.49 70.7 401 0 1272 0.39 0.02 0.02 0.000
7:59am 81 0 3 45 100 73.8 70.7 29.49 70.7 398 0 1268 0.38 0.02 0.02 0.000
8:00am 81 3 5 45 100 73.8 70.8 29.49 70.8 397 0 1273 0.47 0.02 0.02 0.000
8:01am 81 2 4 45 100 73.8 70.8 29.49 70.8 397 0 1273 0.46 0.02 0.02 0.000
8:02am 81 1 4 45 100 73.8 70.8 29.49 70.8 396 0 1272 0.46 0.02 0.02 0.000
8:03am 81 0 4 45 100 73.8 70.9 29.49 70.9 396 0 1279 0.55 0.02 0.02 0.000
8:04am 81 2 4 45 100 73.8 70.9 29.49 70.9 396 0 1279 0.54 0.02 0.02 0.000
8:05am 134 6 8 45 100 73.8 70.9 29.49 70.9 396 0 1279 0.53 0.02 0.02 0.000
8:06am 172 2 6 45 100 73.8 71.0 29.49 71.0 397 0 1286 0.62 0.02 0.02 0.000
8:07am 163 2 6 45 100 73.8 71.0 29.49 71.0 396 0 1285 0.61 0.02 0.02 0.000
8:08am 170 2 6 45 100 74.0 71.0 29.49 71.0 396 0 1285 0.60 0.02 0.02 0.000
8:09am 170 2 6 45 100 74.0 71.0 29.49 71.0 396 0 1285 0.59 0.02 0.02 0.000
8:10am 170 1 6 45 100 74.0 71.0 29.49 71.0 396 0 1285 0.58 0.02 0.02 0.000
8:11am 170 3 3 45 100 74.0 71.0 29.49 71.0 397 0 1286 0.57 0.02 0.02 0.000
8:12am 118 4 6 46 100 74.0 71.0 29.49 71.0 397 0 1286 0.57 0.02 0.02 0.000
8:13am 118 1 6 45 100 74.0 71.0 29.49 71.0 397 0 1286 0.55 0.02 0.02 0.000
8:14am 118 0 6 45 100 74.0 71.1 29.49 71.1 397 0 1293 0.64 0.02 0.02 0.000
8:15am 118 3 6 45 100 74.0 71.1 29.49 71.1 397 0 1293 0.63 0.02 0.02 0.000
8:16am 118 2 3 45 100 74.0 71.1 29.49 71.1 396 0 1291 0.62 0.02 0.02 0.000
8:17am 118 0 3 45 100 74.0 71.2 29.49 71.2 396 0 1298 0.71 0.02 0.02 0.000
8:18am 118 0 3 45 100 74.0 71.2 29.49 71.2 395 0 1297 0.70 0.02 0.02 0.000
8:19am 75 3 4 45 100 74.0 71.2 29.49 71.2 395 0 1297 0.69 0.02 0.02 0.000
8:20am 75 2 4 45 100 74.0 71.2 29.49 71.2 395 0 1297 0.68 0.02 0.02 0.000
8:21am 81 3 4 45 100 74.0 71.2 29.49 71.2 395 0 1297 0.67 0.02 0.02 0.000
8:22am 54 2 5 45 100 74.0 71.2 29.49 71.2 395 0 1297 0.66 0.02 0.02 0.000
8:23am 55 2 5 45 100 74.2 71.3 29.50 71.3 395 0 1302 0.74 0.02 0.02 0.000
8:24am 55 0 5 46 100 74.2 71.3 29.50 71.3 395 0 1302 0.73 0.02 0.02 0.000
8:25am 74 2 5 45 100 74.2 71.3 29.50 71.3 394 0 1301 0.72 0.02 0.02 0.000
8:26am 79 2 3 45 100 74.2 71.3 29.50 71.3 392 0 1299 0.71 0.02 0.02 0.000
8:27am 79 0 3 45 100 74.2 71.4 29.50 71.4 391 0 1304 0.80 0.02 0.02 0.000
8:28am 79 0 3 45 100 74.2 71.3 29.50 71.3 390 0 1296 0.69 0.02 0.02 0.000
8:29am 79 0 3 45 100 74.2 71.4 29.50 71.4 390 0 1303 0.77 0.02 0.02 0.000
8:30am 79 0 3 45 100 74.2 71.4 29.50 71.4 389 0 1302 0.76 0.02 0.02 0.000
8:31am 79 0 2 45 100 74.2 71.5 29.50 71.5 390 0 1309 0.85 0.02 0.02 0.000
8:32am 79 1 3 45 100 74.2 71.5 29.50 71.5 391 0 1310 0.83 0.02 0.02 0.000
8:33am 79 3 4 45 100 74.2 71.5 29.50 71.5 392 0 1311 0.82 0.02 0.02 0.000
8:34am 79 0 4 45 100 74.2 71.5 29.50 71.5 394 0 1314 0.81 0.02 0.02 0.000
8:35am 79 1 4 45 100 74.2 71.5 29.50 71.5 395 0 1315 0.79 0.02 0.02 0.000
8:36am 79 1 2 45 100 74.2 71.5 29.50 71.5 394 0 1314 0.78 0.02 0.02 0.000
8:37am 85 4 4 45 100 74.2 71.6 29.50 71.6 394 0 1320 0.87 0.02 0.02 0.000
8:38am 85 1 4 45 100 74.2 71.6 29.50 71.6 394 0 1320 0.85 0.02 0.02 0.000
8:39am 85 1 4 45 100 74.3 71.6 29.50 71.6 393 0 1319 0.84 0.02 0.02 0.000
8:40am 85 1 4 45 100 74.3 71.6 29.50 71.6 392 0 1318 0.83 0.02 0.02 0.000
8:41am 85 1 2 45 100 74.3 71.6 29.50 71.6 390 0 1315 0.81 0.02 0.02 0.000
8:42am 85 0 5 45 100 74.3 71.6 29.50 71.6 388 0 1313 0.80 0.02 0.02 0.000
8:43am 85 0 5 45 100 74.3 71.6 29.50 71.6 387 0 1312 0.78 0.02 0.02 0.000
8:44am 85 4 5 45 100 74.3 71.7 29.50 71.7 387 0 1318 0.87 0.02 0.02 0.000
8:45am 85 0 5 45 100 74.3 71.7 29.50 71.7 386 0 1317 0.86 0.02 0.02 0.000
8:46am 85 0 1 45 100 74.3 71.7 29.50 71.7 386 0 1317 0.84 0.02 0.02 0.000
8:47am 85 2 2 45 100 74.3 71.7 29.50 71.7 387 0 1318 0.83 0.02 0.02 0.000
8:48am 85 3 4 45 100 74.3 71.7 29.50 71.7 387 0 1318 0.82 0.02 0.02 0.000
8:49am 85 1 4 45 100 74.3 71.7 29.50 71.7 389 0 1321 0.80 0.02 0.02 0.000
8:50am 85 2 4 45 100 74.3 71.7 29.50 71.7 388 0 1320 0.79 0.02 0.02 0.000
8:51am 85 1 2 45 100 74.3 71.7 29.50 71.7 390 0 1322 0.78 0.02 0.02 0.000
8:52am 85 0 2 45 100 74.3 71.7 29.50 71.7 391 0 1323 0.76 0.02 0.02 0.000
8:53am 85 2 2 45 100 74.3 71.9 29.50 71.9 392 0 1337 0.95 0.02 0.02 0.000
8:54am 85 2 3 45 100 74.3 71.9 29.50 71.9 393 0 1338 0.93 0.02 0.02 0.000
8:55am 85 0 3 45 100 74.5 72.0 29.50 72.0 395 0 1347 1.02 0.02 0.02 0.000
8:56am 85 2 2 45 100 74.5 72.0 29.49 72.0 395 0 1348 1.00 0.02 0.02 0.000
8:57am 85 1 3 45 100 74.5 72.0 29.49 72.0 395 0 1348 0.98 0.02 0.02 0.000
8:58am 85 1 3 45 100 74.5 72.0 29.50 72.0 395 0 1347 0.97 0.02 0.02 0.000
8:59am 85 1 3 45 100 74.5 72.0 29.50 72.0 395 0 1347 0.95 0.02 0.02 0.000
9:00am 85 0 3 45 100 74.5 72.0 29.50 72.0 395 0 1347 0.94 0.02 0.02 0.000
9:01am 85 2 2 45 100 74.5 72.0 29.50 72.0 395 0 1347 0.92 0.02 0.02 0.000
9:02am 85 2 3 47 100 74.5 72.1 29.49 72.1 395 0 1354 1.00 0.02 0.02 0.000
9:03am 85 3 6 45 100 74.5 72.1 29.49 72.1 395 0 1354 0.99 0.02 0.02 0.000
9:04am 85 1 6 45 100 74.5 72.0 29.49 72.0 395 0 1348 0.87 0.02 0.02 0.000
9:05am 85 3 6 45 100 74.5 72.1 29.49 72.1 395 0 1354 0.96 0.02 0.02 0.000
9:06am 85 2 5 45 100 74.5 72.1 29.49 72.1 395 0 1354 0.94 0.02 0.02 0.000
9:07am 85 1 5 45 100 74.5 72.1 29.49 72.1 395 0 1354 0.93 0.02 0.02 0.000
9:08am 85 0 5 45 100 74.5 72.2 29.50 72.2 395 0 1359 1.01 0.02 0.02 0.000
9:09am 85 3 5 45 100 74.5 72.1 29.50 72.1 391 0 1348 0.89 0.02 0.02 0.000
9:10am 85 1 5 45 100 74.7 72.2 29.50 72.2 391 0 1355 0.98 0.02 0.02 0.000
9:11am 85 2 2 45 100 74.7 72.2 29.50 72.2 389 0 1353 0.96 0.02 0.02 0.000
9:12am 85 1 3 45 100 74.7 72.2 29.50 72.2 389 0 1353 0.95 0.02 0.02 0.000
9:13am 85 2 4 45 100 74.7 72.2 29.50 72.2 389 0 1353 0.93 0.02 0.02 0.000
9:14am 85 3 4 45 100 74.7 72.2 29.50 72.2 389 0 1353 0.92 0.02 0.02 0.000
9:15am 85 2 4 45 100 74.7 72.3 29.50 72.3 389 0 1359 1.00 0.02 0.02 0.000
9:16am 85 2 2 45 100 74.7 72.3 29.50 72.3 389 0 1359 0.98 0.02 0.02 0.000
9:17am 85 2 5 45 100 74.5 72.3 29.50 72.3 388 0 1358 0.97 0.02 0.02 0.000
9:18am 85 3 5 45 100 74.5 72.4 29.50 72.4 387 0 1363 1.05 0.02 0.02 0.000
9:19am 85 2 5 45 100 74.5 72.3 29.51 72.3 385 0 1354 0.93 0.02 0.02 0.000
9:20am 85 2 5 45 100 74.5 72.3 29.50 72.3 386 0 1356 0.92 0.02 0.02 0.000
9:21am 85 0 2 45 100 74.5 72.4 29.50 72.4 386 0 1362 1.00 0.02 0.02 0.000
9:22am 85 2 2 45 100 74.5 72.5 29.50 72.5 388 0 1370 1.08 0.02 0.02 0.000
9:23am 85 1 2 45 100 74.5 72.5 29.50 72.5 388 0 1370 1.07 0.02 0.02 0.000
9:24am 85 1 2 45 100 74.5 72.6 29.50 72.6 391 0 1380 1.15 0.02 0.02 0.000
9:25am 86 6 6 45 100 74.5 72.7 29.50 72.7 390 0 1385 1.23 0.02 0.02 0.000
9:26am 47 2 8 45 100 74.5 72.7 29.50 72.7 391 0 1387 1.21 0.02 0.02 0.000
9:27am 62 2 8 45 100 74.5 72.7 29.50 72.7 389 0 1384 1.19 0.02 0.02 0.000
9:28am 68 2 8 45 100 74.5 72.7 29.50 72.7 389 0 1384 1.17 0.02 0.02 0.000
9:29am 81 3 8 45 100 74.5 72.7 29.50 72.7 387 0 1382 1.15 0.02 0.02 0.000
9:30am 80 4 8 45 100 74.5 72.7 29.50 72.7 387 0 1382 1.13 0.02 0.02 0.000
9:31am 80 2 4 45 100 74.5 72.7 29.50 72.7 388 0 1383 1.11 0.02 0.02 0.000
9:32am 80 3 4 45 100 74.5 72.7 29.50 72.7 387 0 1382 1.09 0.02 0.02 0.000
9:33am 80 0 4 45 100 74.5 72.7 29.50 72.7 387 0 1382 1.08 0.02 0.02 0.000
9:34am 80 1 5 45 100 74.5 72.6 29.50 72.6 386 0 1375 0.96 0.02 0.02 0.000
9:35am 80 0 5 45 100 74.5 72.7 29.50 72.7 386 0 1381 1.04 0.02 0.02 0.000
9:36am 80 0 0 45 100 74.5 72.7 29.50 72.7 386 0 1381 1.02 0.02 0.02 0.000
9:37am 80 2 3 45 100 74.5 72.7 29.51 72.7 385 0 1380 1.01 0.02 0.02 0.000
9:38am 81 2 4 45 100 74.5 72.8 29.51 72.8 385 0 1386 1.09 0.02 0.02 0.000
9:39am 81 3 4 45 100 74.5 72.8 29.51 72.8 384 0 1385 1.07 0.02 0.02 0.000
9:40am 178 6 7 45 100 74.5 72.8 29.51 72.8 384 0 1384 1.05 0.02 0.02 0.000
9:41am 132 1 6 45 100 74.5 72.7 29.51 72.7 384 0 1378 0.94 0.02 0.02 0.000
9:42am 168 2 6 45 100 74.5 72.8 29.51 72.8 384 0 1384 1.02 0.02 0.02 0.000
9:43am 96 5 6 45 100 74.5 72.8 29.51 72.8 384 0 1384 1.00 0.02 0.02 0.000
9:44am 97 2 6 45 100 74.5 72.9 29.51 72.9 384 0 1390 1.09 0.02 0.02 0.000
9:45am 97 2 6 45 100 74.5 72.8 29.51 72.8 383 0 1383 0.97 0.02 0.02 0.000
9:46am 96 1 4 45 100 74.5 72.9 29.51 72.9 383 0 1389 1.05 0.02 0.02 0.000
9:47am 97 2 4 45 100 74.5 72.9 29.51 72.9 383 0 1389 1.04 0.02 0.02 0.000
9:48am 97 0 4 45 100 74.5 72.9 29.51 72.9 383 0 1389 1.02 0.02 0.02 0.000
9:49am 97 0 4 45 100 74.5 73.0 29.51 73.0 382 0 1394 1.10 0.02 0.02 0.000
9:50am 97 0 4 45 100 74.5 73.0 29.51 73.0 381 0 1393 1.08 0.02 0.02 0.000
9:51am 189 4 5 45 100 74.5 73.1 29.51 73.1 378 0 1396 1.16 0.02 0.02 0.000
9:52am 187 3 5 45 99 74.5 73.0 29.51 73.0 377 73 1389 1.05 0.02 0.02 0.000
9:53am 137 1 5 45 99 74.7 72.9 29.52 72.9 374 73 1379 0.93 0.02 0.02 0.000
9:54am 137 0 5 45 99 74.7 73.0 29.52 73.0 373 73 1384 1.01 0.02 0.02 0.000
9:55am 134 3 5 45 99 74.7 73.0 29.52 73.0 373 73 1384 1.00 0.02 0.02 0.000
9:56am 130 2 3 45 99 74.7 73.0 29.52 73.0 372 73 1383 0.98 0.02 0.02 0.000
9:57am 130 1 3 45 99 74.7 73.1 29.52 73.1 372 73 1388 1.06 0.02 0.02 0.000
9:58am 89 2 4 45 99 74.7 73.1 29.52 73.1 371 73 1387 1.05 0.02 0.02 0.000
9:59am 89 2 4 45 99 74.7 73.1 29.52 73.1 370 73 1386 1.03 0.02 0.02 0.000
10:00am 89 2 4 45 99 74.7 73.2 29.52 73.2 369 73 1391 1.11 0.02 0.02 0.000
10:01am 202 2 5 45 99 74.7 73.2 29.52 73.2 369 73 1391 1.09 0.02 0.02 0.000
10:02am 202 1 5 45 99 74.7 73.2 29.52 73.2 368 73 1390 1.07 0.02 0.02 0.000
10:03am 202 1 5 45 99 74.7 73.3 29.52 73.3 368 73 1397 1.16 0.02 0.02 0.000
10:04am 91 3 5 45 99 74.7 73.3 29.52 73.3 368 73 1397 1.14 0.02 0.02 0.000
10:05am 91 3 5 45 99 74.7 73.3 29.52 73.3 368 73 1397 1.12 0.02 0.02 0.000
10:06am 91 4 4 45 99 74.7 73.4 29.53 73.4 367 73 1402 1.20 0.02 0.02 0.000
10:07am 91 3 4 45 99 74.7 73.5 29.53 73.5 367 73 1408 1.28 0.02 0.02 0.000
10:08am 91 5 5 45 98 74.7 73.5 29.53 73.5 367 149 1408 1.26 0.02 0.02 0.000
10:09am 91 3 5 45 98 74.7 73.5 29.53 73.5 367 149 1408 1.24 0.02 0.02 0.000
10:10am 91 3 5 47 98 74.7 73.5 29.53 73.5 367 149 1408 1.22 0.02 0.02 0.000
10:11am 91 1 4 45 98 74.9 73.6 29.52 73.6 368 149 1416 1.30 0.02 0.02 0.000
10:12am 91 2 4 45 98 74.9 73.6 29.52 73.6 368 149 1416 1.27 0.02 0.02 0.000
10:13am 132 3 5 45 98 74.9 73.7 29.52 73.7 369 149 1423 1.35 0.02 0.02 0.000
10:14am 91 4 5 45 98 74.9 73.7 29.52 73.7 369 149 1423 1.33 0.02 0.02 0.000
10:15am 81 2 7 45 98 74.9 73.7 29.52 73.7 370 149 1424 1.31 0.02 0.02 0.000
10:16am 81 4 8 45 98 74.9 73.7 29.52 73.7 371 149 1425 1.29 0.02 0.02 0.000
10:17am 82 3 8 45 97 74.9 73.6 29.52 73.6 370 225 1418 1.17 0.02 0.02 0.000
10:18am 82 5 8 45 97 74.9 73.6 29.52 73.6 370 225 1418 1.15 0.02 0.02 0.000
10:19am 81 2 9 45 97 74.9 73.5 29.52 73.5 370 225 1411 1.03 0.02 0.02 0.000
10:20am 81 4 9 45 97 74.9 73.6 29.52 73.6 370 225 1418 1.11 0.02 0.02 0.000
10:21am 81 2 4 45 97 74.9 73.6 29.52 73.6 372 225 1420 1.09 0.02 0.02 0.000
10:22am 79 4 7 45 97 74.9 73.7 29.52 73.7 372 225 1428 1.18 0.02 0.02 0.000
10:23am 79 3 7 45 97 74.9 73.7 29.52 73.7 372 225 1428 1.16 0.02 0.02 0.000
10:24am 79 3 7 45 97 74.9 73.8 29.52 73.8 374 225 1436 1.24 0.02 0.02 0.000
10:25am 71 4 7 45 97 74.9 73.8 29.52 73.8 374 225 1436 1.22 0.02 0.02 0.000
10:26am 80 3 7 45 97 74.9 73.9 29.52 73.9 375 225 1444 1.30 0.02 0.02 0.000
10:27am 140 4 7 45 97 74.7 73.8 29.52 73.8 376 225 1438 1.18 0.02 0.02 0.000
10:28am 133 1 7 45 97 74.7 73.9 29.51 73.9 377 225 1446 1.25 0.02 0.02 0.000
10:29am 133 2 7 45 97 74.7 74.1 29.51 74.1 377 225 1459 1.43 0.02 0.02 0.000
10:30am 107 5 7 45 97 74.7 74.1 29.52 74.1 375 225 1456 1.41 0.02 0.02 0.000
10:31am 139 0 5 45 96 74.7 74.2 29.52 74.2 375 302 1463 1.48 0.02 0.02 0.000
10:32am 139 0 5 45 96 74.7 74.3 29.52 74.3 376 303 1470 1.56 0.02 0.02 0.000
10:33am 104 3 5 45 96 74.7 74.4 29.52 74.4 375 303 1475 1.63 0.02 0.02 0.000
10:34am 87 4 6 45 96 74.7 74.4 29.52 74.4 376 303 1476 1.61 0.02 0.02 0.000
10:35am 87 4 6 45 96 74.7 74.4 29.52 74.4 374 303 1474 1.58 0.02 0.02 0.000
10:36am 92 5 5 45 95 74.7 74.4 29.52 74.4 374 380 1474 1.55 0.02 0.02 0.000
10:37am 50 3 6 45 95 74.7 74.4 29.52 74.4 374 380 1474 1.53 0.02 0.02 0.000
10:38am 71 5 6 45 95 74.7 74.4 29.52 74.4 372 380 1471 1.50 0.02 0.02 0.000
10:39am 76 3 6 45 95 74.7 74.5 29.52 74.5 372 381 1478 1.58 0.02 0.02 0.000
10:40am 81 4 8 45 95 74.7 74.5 29.52 74.5 372 381 1478 1.55 0.02 0.02 0.000
10:41am 81 0 5 45 95 74.7 74.5 29.52 74.5 371 381 1476 1.52 0.02 0.02 0.000
10:42am 83 2 5 45 95 74.7 74.5 29.52 74.5 372 381 1477 1.50 0.02 0.02 0.000
10:43am 83 2 5 45 95 74.7 74.5 29.52 74.5 372 381 1477 1.48 0.02 0.02 0.000
10:44am 83 4 5 45 95 74.7 74.6 29.52 74.6 372 381 1483 1.55 0.02 0.02 0.000
10:45am 78 4 5 45 95 74.7 74.6 29.52 74.6 372 381 1483 1.52 0.02 0.02 0.000
10:46am 81 5 6 45 95 74.7 74.6 29.52 74.6 373 381 1486 1.50 0.02 0.02 0.000
10:47am 81 2 6 45 95 74.7 74.5 29.52 74.5 375 381 1482 1.37 0.02 0.02 0.000
10:48am 81 0 6 45 95 74.7 74.5 29.52 74.5 374 381 1480 1.35 0.02 0.02 0.000
10:49am 81 3 6 45 95 74.7 74.6 29.52 74.6 374 381 1487 1.43 0.02 0.02 0.000
10:50am 87 4 6 45 95 74.7 74.6 29.52 74.6 373 381 1486 1.41 0.02 0.02 0.000
10:51am 87 3 5 45 95 74.7 74.5 29.52 74.5 374 381 1480 1.28 0.02 0.02 0.000
10:52am 87 3 6 45 94 74.7 74.6 29.52 74.6 375 459 1488 1.36 0.02 0.02 0.000
10:53am 87 1 6 45 94 74.7 74.6 29.52 74.6 374 459 1487 1.34 0.02 0.02 0.000
10:54am 88 4 6 45 94 74.7 74.6 29.52 74.6 376 459 1489 1.32 0.02 0.02 0.000
10:55am 88 4 6 45 94 74.7 74.6 29.52 74.6 376 459 1489 1.30 0.02 0.02 0.000
10:56am 79 5 5 45 94 74.7 74.7 29.52 74.7 376 459 1495 1.37 0.02 0.02 0.000
10:57am 86 3 6 45 94 74.7 74.7 29.51 74.7 379 459 1499 1.35 0.02 0.02 0.000
10:58am 86 1 6 45 94 74.7 74.7 29.51 74.7 379 459 1499 1.33 0.02 0.02 0.000
10:59am 87 1 6 45 94 74.7 74.8 29.51 74.8 380 460 1506 1.41 0.02 0.02 0.000
11:00am 87 1 6 45 94 74.7 74.8 29.51 74.8 380 460 1506 1.38 0.02 0.02 0.000
11:01am 87 2 2 45 94 74.7 74.9 29.51 74.9 380 460 1513 1.46 0.02 0.02 0.000
11:02am 87 3 3 45 94 74.7 74.8 29.51 74.8 381 460 1507 1.34 0.02 0.02 0.000
11:03am 87 0 3 45 94 74.9 74.9 29.51 74.9 380 460 1513 1.41 0.02 0.02 0.000
11:04am 87 1 3 45 94 74.9 74.9 29.51 74.9 379 460 1511 1.39 0.02 0.02 0.000
11:05am 87 5 6 45 94 74.9 74.9 29.51 74.9 379 460 1511 1.37 0.02 0.02 0.000
11:06am 87 3 5 45 93 74.9 75.0 29.51 75.0 379 539 1518 1.44 0.02 0.02 0.000
11:07am 87 1 5 45 93 74.9 75.0 29.51 75.0 380 539 1519 1.42 0.02 0.02 0.000
11:08am 87 0 5 45 93 74.9 75.0 29.51 75.0 379 539 1518 1.40 0.02 0.02 0.000
11:09am 88 2 5 45 94 74.9 75.1 29.51 75.1 380 460 1525 1.47 0.02 0.02 0.000
11:10am 88 0 5 45 93 74.9 75.1 29.51 75.1 380 540 1525 1.45 0.02 0.02 0.000
11:11am 91 2 5 45 93 74.9 75.1 29.51 75.1 381 540 1526 1.42 0.02 0.02 0.000
11:12am 90 1 6 45 93 74.9 75.1 29.51 75.1 381 540 1526 1.40 0.02 0.02 0.000
11:13am 174 5 7 45 92 74.9 75.1 29.51 75.1 382 620 1527 1.38 0.02 0.02 0.000
11:14am 184 4 8 45 92 74.9 75.1 29.51 75.1 382 620 1527 1.35 0.02 0.02 0.000
11:15am 181 3 8 45 92 74.9 75.2 29.51 75.2 382 620 1534 1.43 0.02 0.02 0.000
11:16am 119 2 5 45 92 74.9 75.3 29.51 75.3 382 620 1540 1.50 0.02 0.02 0.000
11:17am 154 1 5 45 92 74.7 75.3 29.51 75.3 382 620 1540 1.48 0.02 0.02 0.000
11:18am 98 2 5 45 92 74.7 75.4 29.51 75.4 381 620 1545 1.55 0.02 0.02 0.000
11:19am 98 1 5 45 92 74.7 75.4 29.51 75.4 381 620 1545 1.53 0.02 0.02 0.000
11:20am 182 3 5 45 92 74.7 75.5 29.51 75.5 381 621 1552 1.60 0.02 0.02 0.000
11:21am 131 4 5 45 92 74.7 75.6 29.51 75.6 381 621 1558 1.68 0.02 0.02 0.000
11:22am 128 3 7 45 92 74.7 75.6 29.51 75.6 382 621 1559 1.65 0.02 0.02 0.000
11:23am 128 2 7 45 92 74.7 75.6 29.51 75.6 382 621 1559 1.62 0.02 0.02 0.000
11:24am 100 2 7 45 92 74.7 75.6 29.51 75.6 382 621 1559 1.59 0.02 0.02 0.000
11:25am 158 6 7 45 92 74.7 75.7 29.51 75.7 382 621 1565 1.67 0.02 0.02 0.000
11:26am 113 3 6 45 92 74.5 75.7 29.51 75.7 382 621 1565 1.64 0.02 0.02 0.000
11:27am 102 0 6 45 92 74.5 75.7 29.51 75.7 382 621 1565 1.61 0.02 0.02 0.000
11:28am 102 0 6 45 92 74.5 75.8 29.51 75.8 382 621 1572 1.68 0.02 0.02 0.000
11:29am 165 4 6 45 92 74.5 75.8 29.51 75.8 381 621 1571 1.66 0.02 0.02 0.000
11:30am 112 4 8 45 92 74.5 75.8 29.51 75.8 381 621 1571 1.63 0.02 0.02 0.000
11:31am 87 3 5 45 91 74.5 75.8 29.51 75.8 381 703 1571 1.60 0.02 0.02 0.000
11:32am 87 2 5 45 91 74.5 75.8 29.51 75.8 381 703 1571 1.58 0.02 0.02 0.000
11:33am 62 5 5 45 91 74.5 75.8 29.51 75.8 381 703 1571 1.55 0.02 0.02 0.000
11:34am 93 4 6 45 91 74.5 75.8 29.51 75.8 381 703 1571 1.52 0.02 0.02 0.000
11:35am 76 1 6 45 91 74.5 75.8 29.51 75.8 382 703 1572 1.50 0.02 0.02 0.000
11:36am 77 4 4 45 91 74.5 75.8 29.51 75.8 382 703 1572 1.48 0.02 0.02 0.000
11:37am 81 3 5 45 91 74.5 75.8 29.51 75.8 382 703 1572 1.45 0.02 0.02 0.000
11:38am 81 1 5 45 91 74.5 75.8 29.51 75.8 382 703 1572 1.43 0.02 0.02 0.000
11:39am 81 3 5 45 91 74.5 75.8 29.51 75.8 382 703 1572 1.40 0.02 0.02 0.000
11:40am 81 5 5 45 91 74.5 75.8 29.51 75.8 382 703 1572 1.38 0.02 0.02 0.000
11:41am 77 5 6 45 91 74.5 75.9 29.51 75.9 382 703 1578 1.46 0.02 0.02 0.000
11:42am 79 4 6 45 91 74.5 75.8 29.51 75.8 382 703 1572 1.34 0.02 0.02 0.000
11:43am 75 5 7 45 91 74.5 75.8 29.51 75.8 382 703 1572 1.31 0.02 0.02 0.000
11:44am 85 5 7 45 91 74.5 75.7 29.51 75.7 382 702 1565 1.19 0.02 0.02 0.000
11:45am 85 2 7 45 91 74.5 75.8 29.51 75.8 382 703 1572 1.27 0.02 0.02 0.000
11:46am 129 3 7 45 91 74.5 75.7 29.51 75.7 382 702 1565 1.15 0.02 0.02 0.000
11:47am 83 6 8 45 91 74.5 75.7 29.51 75.7 382 702 1565 1.13 0.02 0.02 0.000
11:48am 210 1 8 45 91 74.5 75.7 29.51 75.7 381 702 1564 1.11 0.02 0.02 0.000
11:49am 63 5 8 45 91 74.5 75.6 29.51 75.6 381 702 1558 1.00 0.02 0.02 0.000
11:50am 77 4 8 45 91 74.5 75.7 29.51 75.7 380 702 1563 1.08 0.02 0.02 0.000
11:51am 61 2 5 45 91 74.5 75.7 29.51 75.7 380 702 1563 1.06 0.02 0.02 0.000
11:52am 81 6 7 45 91 74.5 75.6 29.51 75.6 378 702 1555 0.95 0.02 0.02 0.000
11:53am 77 6 7 45 91 74.7 75.6 29.51 75.6 377 702 1553 0.93 0.02 0.02 0.000
11:54am 79 2 7 45 91 74.7 75.7 29.52 75.7 374 702 1556 1.01 0.02 0.02 0.000
11:55am 79 0 7 45 91 74.7 75.7 29.52 75.7 374 702 1556 1.00 0.02 0.02 0.000
11:56am 76 6 7 45 91 74.7 75.7 29.52 75.7 372 702 1554 0.98 0.02 0.02 0.000
11:57am 85 4 7 45 91 74.7 75.7 29.52 75.7 373 702 1555 0.97 0.02 0.02 0.000
11:58am 85 3 7 45 91 74.7 75.7 29.52 75.7 373 702 1555 0.95 0.02 0.02 0.000
11:59am 85 2 7 45 91 74.7 75.7 29.52 75.7 372 702 1554 0.93 0.02 0.02 0.000
12:00pm 85 5 7 45 91 74.7 75.7 29.52 75.7 372 702 1553 0.92 0.02 0.02 0.000
12:01pm 57 3 5 45 91 74.7 75.7 29.52 75.7 373 702 1555 0.90 0.02 0.02 0.000
12:02pm 57 0 5 45 91 74.7 75.7 29.52 75.7 372 702 1553 0.89 0.02 0.02 0.000
12:03pm 57 0 5 45 91 74.7 75.7 29.52 75.7 371 702 1552 0.87 0.02 0.02 0.000
12:04pm 83 5 6 45 91 74.7 75.8 29.52 75.8 371 703 1558 0.96 0.02 0.02 0.000
12:05pm 83 1 6 45 91 74.7 75.8 29.52 75.8 371 703 1558 0.94 0.02 0.02 0.000
12:06pm 83 1 2 45 91 74.7 75.8 29.52 75.8 372 703 1559 0.92 0.02 0.02 0.000
12:07pm 83 2 3 45 91 74.7 75.9 29.52 75.9 373 703 1568 1.01 0.02 0.02 0.000
12:08pm 83 5 5 45 91 74.5 75.9 29.52 75.9 376 703 1571 0.99 0.02 0.02 0.000
12:09pm 83 3 5 45 91 74.5 75.9 29.51 75.9 377 703 1572 0.97 0.02 0.02 0.000
12:10pm 83 4 5 45 91 74.5 75.9 29.51 75.9 378 703 1573 0.96 0.02 0.02 0.000
12:11pm 142 1 7 45 91 74.5 75.9 29.51 75.9 379 703 1575 0.94 0.02 0.02 0.000
12:12pm 142 1 7 45 91 74.5 76.0 29.51 76.0 380 703 1582 1.02 0.02 0.02 0.000
12:13pm 170 2 7 45 91 74.5 76.0 29.51 76.0 380 703 1582 1.01 0.02 0.02 0.000
12:14pm 161 1 7 45 91 74.5 76.0 29.51 76.0 379 703 1581 0.99 0.02 0.02 0.000
12:15pm 137 1 7 45 91 74.5 76.0 29.51 76.0 378 703 1580 0.97 0.02 0.02 0.000
12:16pm 137 0 1 45 91 74.5 76.1 29.51 76.1 378 704 1586 1.06 0.02 0.02 0.000
12:17pm 144 5 5 45 91 74.3 76.1 29.51 76.1 378 704 1586 1.04 0.02 0.02 0.000
12:18pm 172 2 6 45 90 74.3 76.0 29.51 76.0 378 785 1580 0.92 0.02 0.02 0.000
12:19pm 221 1 6 45 91 74.3 76.1 29.51 76.1 378 704 1586 1.01 0.02 0.02 0.000
12:20pm 221 0 6 45 91 74.3 76.1 29.51 76.1 377 704 1585 0.99 0.02 0.02 0.000
12:21pm 221 0 0 45 91 74.3 76.1 29.52 76.1 374 704 1582 0.97 0.02 0.02 0.000
12:22pm 221 0 0 45 91 74.3 76.2 29.52 76.2 372 704 1586 1.06 0.02 0.02 0.000
12:23pm 222 0 2 45 91 74.3 76.2 29.52 76.2 371 704 1583 1.04 0.02 0.02 0.000
12:24pm 60 3 4 45 91 74.3 76.3 29.52 76.3 370 704 1589 1.12 0.02 0.02 0.000
12:25pm 60 2 4 45 90 74.3 76.3 29.52 76.3 369 786 1587 1.10 0.02 0.02 0.000
12:26pm 60 1 2 45 90 74.3 76.3 29.52 76.3 368 786 1586 1.08 0.02 0.02 0.000
12:27pm 60 2 2 45 90 74.3 76.2 29.52 76.2 368 786 1580 0.97 0.02 0.02 0.000
12:28pm 60 1 2 45 90 74.3 76.3 29.53 76.3 367 786 1585 1.05 0.02 0.02 0.000
12:29pm 66 3 3 45 90 74.3 76.2 29.53 76.2 367 786 1579 0.93 0.02 0.02 0.000
12:30pm 77 2 3 45 90 74.5 76.3 29.53 76.3 367 786 1585 1.02 0.02 0.02 0.000
12:31pm 77 1 2 45 90 74.5 76.2 29.53 76.2 367 786 1579 0.90 0.02 0.02 0.000
12:32pm 77 1 2 45 90 74.5 76.3 29.52 76.3 368 786 1586 0.99 0.02 0.02 0.000
12:33pm 77 0 2 45 91 74.5 76.3 29.52 76.3 368 704 1586 0.97 0.02 0.02 0.000
12:34pm 77 0 3 45 91 74.5 76.3 29.53 76.3 367 704 1585 0.95 0.02 0.02 0.000
12:35pm 77 0 3 45 91 74.5 76.3 29.53 76.3 367 704 1585 0.94 0.02 0.02 0.000
12:36pm 77 0 0 45 91 74.5 76.4 29.53 76.4 365 704 1589 1.02 0.02 0.02 0.000
12:37pm 77 0 0 45 91 74.5 76.4 29.53 76.4 363 704 1587 1.00 0.02 0.02 0.000
12:38pm 77 3 3 45 91 74.5 76.5 29.53 76.5 364 705 1594 1.09 0.02 0.02 0.000
12:39pm 77 0 3 46 91 74.5 76.6 29.53 76.6 365 705 1602 1.17 0.02 0.02 0.000
12:40pm 77 0 3 45 91 74.5 76.6 29.53 76.6 366 705 1603 1.15 0.02 0.02 0.000
12:41pm 77 0 0 45 91 74.5 76.5 29.53 76.5 366 705 1597 1.03 0.02 0.02 0.000
12:42pm 77 0 0 45 91 74.5 76.5 29.53 76.5 366 705 1597 1.02 0.02 0.02 0.000
12:43pm 77 0 0 45 91 74.5 76.6 29.53 76.6 365 705 1602 1.10 0.02 0.02 0.000
12:44pm 77 0 0 45 91 74.5 76.5 29.53 76.5 364 705 1594 0.98 0.02 0.02 0.000
12:45pm 77 0 0 45 91 74.5 76.6 29.53 76.6 362 705 1598 1.06 0.02 0.02 0.000
12:46pm 74 2 2 45 91 74.5 76.6 29.54 76.6 357 705 1592 1.05 0.02 0.02 0.000
12:47pm 73 2 3 45 91 74.5 76.6 29.54 76.6 352 705 1586 1.03 0.02 0.02 0.000
12:48pm 73 2 3 45 91 74.5 76.4 29.55 76.4 347 704 1567 0.81 0.02 0.02 0.000
12:49pm 73 1 3 45 91 74.5 76.4 29.55 76.4 349 704 1569 0.80 0.02 0.02 0.000
12:50pm 73 1 3 45 91 74.5 76.4 29.55 76.4 347 704 1567 0.79 0.02 0.02 0.000
12:51pm 73 2 2 45 91 74.5 76.2 29.55 76.2 345 704 1552 0.57 0.02 0.02 0.000
12:52pm 71 2 3 45 91 74.5 76.2 29.56 76.2 339 704 1544 0.56 0.02 0.02 0.000
12:53pm 71 3 3 45 92 74.5 76.1 29.56 76.1 337 622 1535 0.46 0.02 0.02 0.000
12:54pm 71 2 3 45 92 74.5 76.0 29.56 76.0 332 622 1524 0.35 0.02 0.02 0.000
12:55pm 71 1 3 45 92 74.5 75.9 29.56 75.9 332 622 1517 0.25 0.02 0.02 0.000
12:56pm 82 2 2 45 92 74.5 75.9 29.56 75.9 337 622 1523 0.24 0.03 0.03 1.210
12:57pm 242 1 7 45 93 74.5 75.8 29.55 75.8 339 541 1520 0.14 0.06 0.06 1.490
12:58pm 356 0 7 45 93 74.5 75.7 29.55 75.7 342 541 1517 0.04 0.09 0.09 1.030
12:59pm 356 0 7 45 93 74.5 75.6 29.55 75.6 346 541 1515 -0.06 0.10 0.10 0.990
1:00pm 356 0 7 45 93 74.5 75.5 29.54 75.5 350 540 1513 -0.16 0.11 0.11 0.690
1:01pm 356 0 0 45 93 74.5 75.4 29.54 75.4 350 540 1508 -0.25 0.12 0.12 0.550
1:02pm 356 0 0 45 93 74.5 75.3 29.54 75.3 350 540 1502 -0.35 0.12 0.12 0.290
1:03pm 356 0 0 45 93 74.5 75.2 29.55 75.2 349 540 1493 -0.44 0.13 0.13 0.280
1:04pm 356 0 0 45 93 74.5 75.1 29.55 75.1 345 540 1482 -0.53 0.13 0.13 0.280
1:05pm 356 0 0 45 94 74.5 75.0 29.55 75.0 340 460 1470 -0.63 0.14 0.14 0.260
1:06pm 356 0 0 45 94 74.5 74.9 29.56 74.9 339 460 1462 -0.71 0.14 0.14 0.260
1:07pm 356 0 0 45 94 74.5 74.8 29.56 74.8 339 460 1456 -0.80 0.14 0.14 0.250
1:08pm 340 2 7 45 94 74.5 74.7 29.56 74.7 339 459 1449 -0.89 0.15 0.15 0.250
1:09pm 341 1 7 45 94 74.5 74.5 29.56 74.5 339 459 1437 -1.07 0.15 0.15 0.250
1:10pm 341 0 7 45 94 74.5 74.4 29.56 74.4 339 459 1430 -1.15 0.15 0.15 0.190
1:11pm 341 0 0 45 95 74.5 74.2 29.55 74.2 339 380 1419 -1.33 0.16 0.16 0.180
1:12pm 226 1 1 45 94 74.5 74.1 29.55 74.1 339 458 1412 -1.41 0.16 0.16 0.180
1:13pm 181 1 3 45 94 74.5 74.0 29.55 74.0 339 458 1406 -1.48 0.16 0.16 0.180
1:14pm 181 0 3 45 94 74.5 73.7 29.56 73.7 339 457 1386 -1.76 0.16 0.16 0.160
1:15pm 181 2 3 45 94 74.5 73.6 29.56 73.6 337 457 1377 -1.83 0.17 0.17 0.130
1:16pm 181 1 2 45 94 74.5 73.4 29.56 73.4 336 457 1363 -1.99 0.17 0.17 0.130
1:17pm 182 2 2 45 94 74.5 73.2 29.56 73.2 332 457 1346 -2.16 0.17 0.17 0.130
1:18pm 182 0 2 45 94 74.5 72.9 29.57 72.9 327 456 1320 -2.42 0.18 0.18 0.230
1:19pm 182 1 2 45 94 74.5 72.8 29.57 72.8 326 456 1313 -2.48 0.18 0.18 0.230
1:20pm 182 0 2 45 93 74.5 72.6 29.57 72.6 325 534 1299 -2.64 0.18 0.18 0.230
1:21pm 182 0 1 45 93 74.5 72.3 29.57 72.3 325 533 1280 -2.89 0.19 0.19 0.190
1:22pm 182 0 1 45 94 74.3 72.1 29.57 72.1 327 454 1270 -3.04 0.19 0.19 0.190
1:23pm 182 0 1 45 94 74.3 72.0 29.56 72.0 330 454 1268 -3.09 0.19 0.19 0.190
1:24pm 182 0 1 45 94 74.3 71.9 29.56 71.9 333 454 1265 -3.14 0.19 0.19 0.170
1:25pm 182 0 1 45 94 74.3 71.7 29.56 71.7 334 454 1253 -3.28 0.20 0.20 0.140
1:26pm 182 0 0 45 95 74.3 71.7 29.56 71.7 332 376 1251 -3.23 0.20 0.20 0.140
1:27pm 182 0 0 45 95 74.3 71.6 29.56 71.6 332 376 1244 -3.27 0.20 0.20 0.140
1:28pm 182 0 0 45 95 74.3 71.5 29.56 71.5 331 376 1237 -3.32 0.20 0.20 0.140
1:29pm 182 0 0 45 95 74.3 71.4 29.56 71.4 332 376 1232 -3.36 0.20 0.20 0.140
1:30pm 182 0 0 45 95 74.3 71.3 29.56 71.3 334 376 1228 -3.40 0.20 0.20 0.110
1:31pm 182 0 0 45 95 74.3 71.2 29.56 71.2 337 375 1225 -3.45 0.20 0.20 0.100
1:32pm 182 1 1 45 95 74.3 71.2 29.56 71.2 337 375 1225 -3.39 0.20 0.20 0.080
1:33pm 182 0 1 45 96 74.3 71.1 29.56 71.1 336 299 1217 -3.43 0.20 0.20 0.070
1:34pm 182 0 1 45 96 74.3 71.0 29.56 71.0 337 298 1212 -3.48 0.20 0.20 0.070
1:35pm 182 0 1 45 96 74.3 71.0 29.56 71.0 338 298 1213 -3.42 0.21 0.21 0.070
1:36pm 182 0 0 45 96 74.3 71.0 29.56 71.0 338 298 1213 -3.36 0.21 0.21 0.070
1:37pm 182 0 0 45 96 74.3 71.0 29.56 71.0 337 298 1212 -3.31 0.21 0.21 0.070
1:38pm 182 0 0 45 96 74.3 70.9 29.56 70.9 338 298 1207 -3.35 0.21 0.21 0.070
1:39pm 182 0 0 45 96 74.3 70.9 29.56 70.9 338 298 1207 -3.30 0.21 0.21 0.070
1:40pm 182 0 0 45 96 74.3 70.9 29.56 70.9 339 298 1208 -3.24 0.21 0.21 0.070
1:41pm 182 0 0 45 97 74.3 70.8 29.55 70.8 339 222 1202 -3.29 0.22 0.22 0.090
1:42pm 182 0 0 45 97 74.3 70.8 29.55 70.8 342 222 1206 -3.23 0.22 0.22 0.090
1:43pm 182 0 0 45 97 74.3 70.8 29.55 70.8 345 222 1209 -3.18 0.22 0.22 0.090
1:44pm 182 0 0 45 97 74.3 70.8 29.55 70.8 347 222 1211 -3.13 0.22 0.22 0.090
1:45pm 182 0 0 45 97 74.3 70.7 29.55 70.7 349 222 1207 -3.17 0.22 0.22 0.090
1:46pm 182 0 0 45 97 74.3 70.7 29.54 70.7 350 222 1208 -3.12 0.23 0.23 0.110
1:47pm 182 0 0 45 97 74.3 70.8 29.54 70.8 350 222 1215 -2.97 0.23 0.23 0.110
1:48pm 182 0 0 45 97 74.3 70.7 29.54 70.7 350 222 1208 -3.02 0.23 0.23 0.110
1:49pm 182 0 0 45 97 74.3 70.7 29.54 70.7 350 222 1208 -2.97 0.23 0.23 0.110
1:50pm 182 0 0 45 97 74.3 70.7 29.54 70.7 350 222 1208 -2.92 0.24 0.24 0.160
1:51pm 182 0 0 45 97 74.3 70.7 29.54 70.7 350 222 1210 -2.88 0.24 0.24 0.160
1:52pm 182 0 0 45 97 74.3 70.7 29.54 70.7 351 222 1211 -2.83 0.24 0.24 0.160
1:53pm 182 0 0 45 97 74.3 70.7 29.54 70.7 352 222 1212 -2.78 0.24 0.24 0.160
1:54pm 182 0 0 45 98 74.3 70.7 29.54 70.7 355 147 1215 -2.74 0.24 0.24 0.130
1:55pm 182 0 0 45 98 74.5 70.8 29.54 70.8 358 147 1225 -2.59 0.25 0.25 0.130
1:56pm 182 0 0 45 98 74.5 70.7 29.53 70.7 362 147 1224 -2.65 0.25 0.25 0.130
1:57pm 182 0 0 45 98 74.5 70.8 29.53 70.8 365 147 1234 -2.50 0.25 0.25 0.130
1:58pm 182 0 0 45 98 74.5 70.7 29.53 70.7 366 147 1229 -2.56 0.26 0.26 0.160
1:59pm 182 1 1 45 98 74.5 70.8 29.52 70.8 368 147 1237 -2.42 0.26 0.26 0.160
2:00pm 182 2 3 45 98 74.5 70.8 29.52 70.8 372 147 1243 -2.38 0.26 0.26 0.160
2:01pm 182 1 2 45 98 74.5 70.8 29.51 70.8 377 147 1249 -2.34 0.26 0.26 0.160
2:02pm 182 1 2 45 98 74.5 70.8 29.51 70.8 379 147 1251 -2.30 0.26 0.26 0.140
2:03pm 154 3 5 45 98 74.5 70.7 29.51 70.7 380 147 1246 -2.36 0.26 0.26 0.120
2:04pm 138 0 5 45 98 74.5 70.7 29.51 70.7 381 147 1247 -2.32 0.27 0.27 0.120
2:05pm 139 2 5 45 98 74.5 70.7 29.51 70.7 384 147 1250 -2.28 0.27 0.27 0.120
2:06pm 167 2 4 45 98 74.5 70.7 29.50 70.7 386 147 1254 -2.25 0.27 0.27 0.120
2:07pm 166 2 4 45 98 74.5 70.7 29.50 70.7 389 147 1257 -2.21 0.27 0.27 0.120
2:08pm 151 2 4 45 98 74.5 70.7 29.50 70.7 391 147 1259 -2.17 0.27 0.27 0.120
2:09pm 116 1 6 45 98 74.5 70.8 29.50 70.8 392 147 1267 -2.04 0.27 0.27 0.100
2:10pm 107 4 6 45 98 74.5 70.8 29.50 70.8 394 147 1269 -2.00 0.27 0.27 0.080
2:11pm 107 2 4 45 98 74.5 70.8 29.49 70.8 395 147 1271 -1.97 0.27 0.27 0.070
2:12pm 118 1 4 45 98 74.5 70.8 29.49 70.8 396 147 1272 -1.94 0.28 0.28 0.070
2:13pm 131 1 4 45 99 74.5 70.8 29.49 70.8 399 73 1276 -1.90 0.28 0.28 0.070
2:14pm 132 2 4 45 98 74.5 70.8 29.49 70.8 402 147 1279 -1.87 0.28 0.28 0.070
2:15pm 132 1 4 45 99 74.5 70.8 29.49 70.8 403 73 1280 -1.84 0.28 0.28 0.070
2:16pm 158 5 5 45 99 74.5 70.8 29.48 70.8 406 73 1285 -1.81 0.28 0.28 0.070
2:17pm 91 3 5 45 99 74.5 70.9 29.48 70.9 407 73 1292 -1.68 0.28 0.28 0.070
2:18pm 132 2 5 45 99 74.5 71.0 29.48 71.0 407 73 1299 -1.56 0.29 0.29 0.100
2:19pm 133 0 5 45 99 74.5 71.0 29.48 71.0 407 73 1299 -1.53 0.29 0.29 0.100
2:20pm 88 0 5 45 99 74.5 71.0 29.48 71.0 408 73 1300 -1.50 0.29 0.29 0.100
2:21pm 164 3 4 45 99 74.5 71.0 29.48 71.0 408 73 1300 -1.48 0.29 0.29 0.100
2:22pm 150 0 5 45 99 74.5 71.1 29.48 71.1 408 73 1306 -1.36 0.29 0.29 0.100
2:23pm 150 1 5 45 99 74.5 71.1 29.48 71.1 407 73 1305 -1.34 0.29 0.29 0.100
2:24pm 150 0 5 45 99 74.5 71.1 29.48 71.1 406 73 1304 -1.31 0.29 0.29 0.090
2:25pm 153 1 5 45 99 74.5 71.2 29.48 71.2 406 73 1310 -1.19 0.29 0.29 0.080
2:26pm 153 0 1 45 99 74.3 71.2 29.48 71.2 406 73 1310 -1.17 0.30 0.30 0.080
2:27pm 153 0 1 45 99 74.3 71.2 29.48 71.2 406 73 1309 -1.15 0.30 0.30 0.080
2:28pm 153 0 1 45 99 74.3 71.2 29.48 71.2 406 73 1309 -1.14 0.30 0.30 0.080
2:29pm 153 1 1 45 99 74.3 71.2 29.48 71.2 406 73 1310 -1.12 0.30 0.30 0.080
2:30pm 153 1 1 45 99 74.3 71.2 29.48 71.2 406 73 1310 -1.10 0.30 0.30 0.080
2:31pm 153 0 1 45 99 74.3 71.2 29.48 71.2 407 73 1311 -1.08 0.30 0.30 0.080
2:32pm 153 3 3 45 99 74.3 71.2 29.48 71.2 408 73 1313 -1.06 0.30 0.30 0.080
2:33pm 153 0 3 45 99 74.3 71.2 29.48 71.2 408 73 1313 -1.05 0.30 0.30 0.080
2:34pm 153 1 3 45 99 74.3 71.2 29.48 71.2 409 73 1314 -1.03 0.30 0.30 0.070
2:35pm 153 1 3 45 99 74.3 71.2 29.48 71.2 411 73 1316 -1.01 0.30 0.30 0.060
2:36pm 153 2 3 45 99 74.3 71.2 29.48 71.2 413 73 1318 -0.99 0.31 0.31 0.060
2:37pm 160 7 7 45 99 74.3 71.2 29.47 71.2 418 73 1325 -0.98 0.31 0.31 0.060
2:38pm 160 4 7 45 99 74.3 71.3 29.47 71.3 422 73 1336 -0.86 0.31 0.31 0.060
2:39pm 160 3 7 45 99 74.3 71.3 29.46 71.3 427 73 1341 -0.85 0.31 0.31 0.060
2:40pm 179 4 7 45 99 74.3 71.4 29.46 71.4 432 73 1355 -0.74 0.31 0.31 0.060
2:41pm 178 0 4 45 99 74.3 71.3 29.46 71.3 431 73 1347 -0.82 0.31 0.31 0.060
2:42pm 93 1 4 45 99 74.3 71.4 29.46 71.4 429 73 1350 -0.71 0.31 0.31 0.060
2:43pm 93 1 4 45 99 74.3 71.4 29.46 71.4 426 73 1347 -0.70 0.31 0.31 0.060
2:44pm 93 0 4 45 99 74.3 71.5 29.46 71.5 425 73 1352 -0.59 0.31 0.31 0.060
2:45pm 93 2 4 45 100 74.5 71.5 29.46 71.5 424 0 1351 -0.58 0.31 0.31 0.060
2:46pm 150 3 4 45 99 74.5 71.5 29.47 71.5 423 73 1350 -0.57 0.31 0.31 0.060
2:47pm 169 3 4 45 99 74.5 71.5 29.47 71.5 423 73 1350 -0.56 0.31 0.31 0.050
2:48pm 169 1 4 45 99 74.5 71.6 29.47 71.6 423 73 1356 -0.45 0.31 0.31 0.050
2:49pm 169 1 4 45 99 74.5 71.6 29.47 71.6 423 73 1356 -0.45 0.31 0.31 0.040
2:50pm 169 2 4 45 99 74.5 71.6 29.47 71.6 423 73 1356 -0.44 0.31 0.31 0.040
2:51pm 169 0 2 45 99 74.5 71.7 29.47 71.7 423 73 1362 -0.33 0.31 0.31 0.040
2:52pm 169 1 2 45 100 74.5 71.7 29.47 71.7 423 0 1362 -0.33 0.31 0.31 0.040
2:53pm 169 0 2 45 100 74.5 71.8 29.47 71.8 423 0 1369 -0.22 0.31 0.31 0.000
2:54pm 169 1 2 45 99 74.5 71.9 29.47 71.9 423 73 1375 -0.12 0.31 0.31 0.000
2:55pm 169 1 2 45 100 74.5 71.9 29.47 71.9 423 0 1375 -0.12 0.31 0.31 0.000
2:56pm 169 0 1 45 100 74.5 72.0 29.47 72.0 422 0 1380 -0.02 0.31 0.31 0.000
2:57pm 169 2 2 45 100 74.5 72.0 29.47 72.0 422 0 1380 -0.01 0.31 0.31 0.000
2:58pm 208 2 4 45 100 74.5 72.1 29.47 72.1 421 0 1386 0.08 0.31 0.31 0.000
2:59pm 208 2 4 45 100 74.5 72.1 29.47 72.1 421 0 1386 0.08 0.31 0.31 0.000
3:00pm 208 1 4 45 100 74.5 72.2 29.47 72.2 422 0 1393 0.18 0.31 0.31 0.000
3:01pm 208 1 2 45 100 74.5 72.2 29.47 72.2 422 0 1393 0.18 0.31 0.31 0.000
3:02pm 208 1 2 45 100 74.5 72.2 29.47 72.2 423 0 1394 0.18 0.31 0.31 0.000
3:03pm 208 1 2 45 100 74.5 72.3 29.46 72.3 424 0 1402 0.27 0.31 0.31 0.000
3:04pm 116 3 3 45 100 74.7 72.3 29.46 72.3 424 0 1402 0.27 0.31 0.31 0.000
3:05pm 116 2 3 45 100 74.7 72.4 29.46 72.4 424 0 1408 0.36 0.31 0.31 0.000
3:06pm 116 1 2 45 100 74.7 72.4 29.47 72.4 423 0 1407 0.36 0.31 0.31 0.000
3:07pm 116 1 3 45 100 74.7 72.5 29.47 72.5 423 0 1413 0.45 0.31 0.31 0.000
3:08pm 116 2 3 45 100 74.7 72.5 29.47 72.5 423 0 1413 0.44 0.31 0.31 0.000
3:09pm 116 1 3 45 100 74.7 72.5 29.47 72.5 423 0 1413 0.43 0.31 0.31 0.000
3:10pm 117 0 3 45 100 74.7 72.5 29.47 72.5 423 0 1413 0.43 0.31 0.31 0.000
3:11pm 117 0 0 45 100 74.7 72.6 29.47 72.6 423 0 1420 0.52 0.31 0.31 0.000
3:12pm 117 0 0 45 100 74.7 72.7 29.46 72.7 424 0 1427 0.61 0.31 0.31 0.000
3:13pm 118 2 3 45 100 74.7 72.8 29.46 72.8 425 0 1435 0.70 0.31 0.31 0.000
3:14pm 118 1 3 45 100 74.7 72.9 29.46 72.9 425 0 1441 0.79 0.31 0.31 0.000
3:15pm 118 4 4 45 100 74.7 73.0 29.46 73.0 426 0 1448 0.87 0.31 0.31 0.000
3:16pm 118 2 4 45 100 74.7 73.0 29.46 73.0 427 0 1450 0.86 0.31 0.31 0.000
3:17pm 118 1 4 45 100 74.7 73.0 29.46 73.0 428 0 1451 0.84 0.31 0.31 0.000
3:18pm 118 2 4 45 100 74.7 73.1 29.46 73.1 427 0 1456 0.93 0.31 0.31 0.000
3:19pm 118 0 4 45 100 74.7 73.3 29.46 73.3 427 0 1469 1.11 0.31 0.31 0.000
3:20pm 118 0 4 45 100 74.7 73.3 29.46 73.3 426 0 1468 1.09 0.31 0.31 0.000
3:21pm 118 1 1 45 100 74.7 73.5 29.46 73.5 425 0 1479 1.27 0.31 0.31 0.000
3:22pm 118 1 2 45 100 74.5 73.6 29.46 73.6 425 0 1485 1.35 0.31 0.31 0.000
3:23pm 126 2 4 45 100 74.5 73.6 29.46 73.6 425 0 1485 1.33 0.31 0.31 0.000
3:24pm 127 1 4 45 100 74.5 73.6 29.46 73.6 426 0 1487 1.31 0.31 0.31 0.000
3:25pm 172 1 4 45 100 74.5 73.6 29.46 73.6 428 0 1489 1.29 0.31 0.31 0.000
3:26pm 172 2 3 45 100 74.5 73.6 29.46 73.6 428 0 1489 1.26 0.31 0.31 0.000
3:27pm 172 2 3 46 99 74.5 73.6 29.46 73.6 428 73 1489 1.24 0.31 0.31 0.000
3:28pm 172 2 3 45 99 74.5 73.5 29.46 73.5 428 73 1482 1.12 0.31 0.31 0.000
3:29pm 172 1 3 45 99 74.5 73.5 29.46 73.5 428 73 1482 1.11 0.31 0.31 0.000
3:30pm 172 0 3 45 99 74.5 73.5 29.46 73.5 429 73 1484 1.09 0.31 0.31 0.000
3:31pm 172 0 1 44 99 74.5 73.5 29.46 73.5 429 73 1485 1.07 0.31 0.31 0.000
3:32pm 170 1 1 45 100 74.5 73.6 29.46 73.6 432 0 1494 1.15 0.31 0.31 0.000
3:33pm 169 2 3 45 100 74.5 73.6 29.45 73.6 433 0 1496 1.13 0.31 0.31 0.000
3:34pm 148 3 3 45 99 74.3 73.6 29.45 73.6 433 73 1496 1.11 0.31 0.31 0.000
3:35pm 148 1 3 45 99 74.3 73.6 29.46 73.6 432 73 1494 1.09 0.31 0.31 0.000
3:36pm 148 1 2 45 99 74.5 73.6 29.46 73.6 429 73 1491 1.08 0.31 0.31 0.000
3:37pm 148 0 2 45 99 74.3 73.7 29.46 73.7 428 73 1495 1.16 0.31 0.31 0.000
3:38pm 148 1 2 45 99 74.5 73.7 29.46 73.7 427 73 1494 1.14 0.31 0.31 0.000
3:39pm 148 1 2 45 99 74.5 73.7 29.46 73.7 427 73 1494 1.12 0.31 0.31 0.000
3:40pm 148 1 2 45 99 74.5 73.8 29.46 73.8 428 73 1501 1.20 0.31 0.31 0.000
3:41pm 123 2 3 45 99 74.5 73.8 29.46 73.8 429 73 1503 1.18 0.31 0.31 0.000
3:42pm 123 0 3 45 99 74.5 73.8 29.46 73.8 429 73 1504 1.16 0.31 0.31 0.000
3:43pm 123 0 3 45 99 74.5 73.8 29.46 73.8 430 73 1505 1.14 0.31 0.31 0.000
3:44pm 123 0 3 45 99 74.5 73.8 29.46 73.8 429 73 1504 1.12 0.31 0.31 0.000
3:45pm 123 0 3 45 99 74.5 73.8 29.46 73.8 428 73 1501 1.11 0.31 0.31 0.000
3:46pm 123 0 0 45 99 74.5 73.9 29.46 73.9 426 74 1506 1.19 0.31 0.31 0.000
3:47pm 123 0 0 45 100 74.5 74.0 29.46 74.0 426 0 1512 1.27 0.31 0.31 0.000
3:48pm 123 1 1 45 100 74.5 74.1 29.46 74.1 426 0 1518 1.35 0.31 0.31 0.000
3:49pm 123 0 1 45 99 74.5 74.1 29.46 74.1 424 74 1516 1.32 0.31 0.31 0.000
3:50pm 123 0 1 45 99 74.5 74.2 29.46 74.2 424 74 1522 1.40 0.31 0.31 0.000
3:51pm 123 0 1 45 99 74.5 74.2 29.46 74.2 424 74 1522 1.38 0.31 0.31 0.000
3:52pm 123 1 1 45 99 74.5 74.4 29.46 74.4 424 74 1535 1.55 0.31 0.31 0.000
3:53pm 123 1 2 45 99 74.5 74.4 29.46 74.4 424 74 1535 1.53 0.31 0.31 0.000
3:54pm 123 0 2 45 99 74.5 74.4 29.46 74.4 424 74 1535 1.50 0.31 0.31 0.000
3:55pm 123 0 2 45 99 74.5 74.3 29.47 74.3 423 74 1528 1.38 0.31 0.31 0.000
3:56pm 123 0 1 45 99 74.5 74.4 29.47 74.4 423 74 1534 1.45 0.31 0.31 0.000
3:57pm 123 0 1 45 99 74.5 74.4 29.47 74.4 422 74 1533 1.43 0.31 0.31 0.000
3:58pm 123 0 1 45 99 74.5 74.5 29.47 74.5 422 74 1539 1.50 0.31 0.31 0.000
3:59pm 123 1 1 45 99 74.5 74.5 29.47 74.5 422 74 1539 1.48 0.31 0.31 0.000
4:00pm 123 2 2 45 99 74.5 74.6 29.47 74.6 421 74 1544 1.55 0.31 0.31 0.000
4:01pm 123 1 2 45 98 74.7 74.6 29.47 74.6 420 149 1543 1.53 0.31 0.31 0.000
4:02pm 123 1 2 45 98 74.7 74.5 29.47 74.5 419 149 1536 1.41 0.31 0.31 0.000
4:03pm 123 1 2 45 98 74.7 74.5 29.47 74.5 418 149 1533 1.38 0.31 0.31 0.000
4:04pm 123 0 2 45 98 74.7 74.5 29.47 74.5 418 149 1533 1.36 0.31 0.31 0.000
4:05pm 123 0 2 45 99 74.7 74.6 29.47 74.6 415 74 1536 1.44 0.31 0.31 0.000
4:06pm 123 1 1 45 98 74.7 74.6 29.48 74.6 413 149 1534 1.41 0.31 0.31 0.000
4:07pm 123 0 1 45 98 74.5 74.7 29.48 74.7 410 149 1537 1.49 0.31 0.31 0.000
4:08pm 123 0 1 45 98 74.5 74.8 29.48 74.8 409 150 1542 1.56 0.31 0.31 0.000
4:09pm 123 0 1 45 98 74.5 74.8 29.48 74.8 408 150 1541 1.54 0.31 0.31 0.000
4:10pm 123 0 1 45 98 74.5 74.9 29.48 74.9 408 150 1547 1.61 0.31 0.31 0.000
4:11pm 123 0 0 44 98 74.5 74.9 29.48 74.9 407 150 1546 1.59 0.31 0.31 0.000
4:12pm 123 0 0 45 98 74.5 74.9 29.48 74.9 406 150 1545 1.56 0.31 0.31 0.000
4:13pm 123 0 0 45 98 74.5 74.9 29.48 74.9 406 150 1544 1.53 0.31 0.31 0.000
4:14pm 123 0 0 45 98 74.5 75.0 29.48 75.0 406 150 1550 1.61 0.31 0.31 0.000
4:15pm 123 0 0 45 98 74.5 75.0 29.49 75.0 405 150 1549 1.58 0.31 0.31 0.000
4:16pm 123 0 0 45 98 74.5 75.0 29.49 75.0 403 150 1547 1.56 0.31 0.31 0.000
4:17pm 123 0 0 44 98 74.3 75.1 29.49 75.1 400 150 1550 1.63 0.31 0.31 0.000
4:18pm 123 0 0 45 98 74.3 75.1 29.49 75.1 398 150 1548 1.60 0.31 0.31 0.000
4:19pm 123 0 0 45 98 74.3 75.2 29.49 75.2 396 150 1552 1.68 0.31 0.31 0.000
4:20pm 123 0 0 44 98 74.3 75.2 29.49 75.2 396 150 1552 1.65 0.31 0.31 0.000
4:21pm 123 0 0 44 98 74.3 75.3 29.49 75.3 396 150 1558 1.72 0.31 0.31 0.000
4:22pm 123 0 0 45 98 74.3 75.2 29.49 75.2 396 150 1552 1.59 0.31 0.31 0.000
4:23pm 123 0 0 45 98 74.3 75.3 29.49 75.3 396 150 1558 1.67 0.31 0.31 0.000
4:24pm 123 0 0 45 98 74.3 75.4 29.49 75.4 398 150 1567 1.74 0.31 0.31 0.000
4:25pm 123 0 0 45 98 74.3 75.5 29.49 75.5 399 150 1574 1.81 0.31 0.31 0.000
4:26pm 123 0 0 44 98 74.3 75.5 29.49 75.5 400 150 1575 1.78 0.31 0.31 0.000
4:27pm 123 0 0 45 97 74.3 75.5 29.49 75.5 399 227 1574 1.75 0.31 0.31 0.000
4:28pm 123 0 0 45 97 74.3 75.5 29.49 75.5 399 227 1574 1.72 0.31 0.31 0.000
4:29pm 123 0 0 45 97 74.3 75.5 29.49 75.5 398 227 1573 1.69 0.31 0.31 0.000
4:30pm 123 0 0 45 97 74.3 75.5 29.49 75.5 398 227 1573 1.66 0.31 0.31 0.000
4:31pm 123 0 0 45 97 74.3 75.5 29.49 75.5 398 227 1573 1.64 0.31 0.31 0.000
4:32pm 123 0 0 45 97 74.3 75.5 29.49 75.5 399 227 1574 1.61 0.31 0.31 0.000
4:33pm 123 0 0 45 97 74.3 75.5 29.49 75.5 399 227 1574 1.58 0.31 0.31 0.000
4:34pm 123 2 2 45 97 74.3 75.5 29.49 75.5 400 227 1575 1.56 0.31 0.31 0.000
4:35pm 125 3 3 45 96 74.3 75.4 29.49 75.4 401 304 1570 1.43 0.31 0.31 0.000
4:36pm 125 2 3 45 96 74.3 75.2 29.49 75.2 402 304 1559 1.21 0.31 0.31 0.000
4:37pm 125 0 3 45 96 74.3 75.2 29.49 75.2 403 304 1560 1.19 0.31 0.31 0.000
4:38pm 125 0 3 45 96 74.3 75.1 29.49 75.1 402 304 1552 1.07 0.31 0.31 0.000
4:39pm 125 0 3 45 96 74.3 75.1 29.49 75.1 403 304 1553 1.05 0.31 0.31 0.000
4:40pm 125 0 3 45 96 74.3 75.1 29.49 75.1 403 304 1553 1.04 0.31 0.31 0.000
4:41pm 125 0 0 45 96 74.3 75.2 29.49 75.2 405 304 1562 1.12 0.31 0.31 0.000
4:42pm 125 0 0 45 97 74.3 75.3 29.48 75.3 406 226 1569 1.20 0.31 0.31 0.000
4:43pm 125 1 1 45 96 74.3 75.3 29.48 75.3 406 304 1570 1.18 0.31 0.31 0.000
4:44pm 125 3 3 45 96 74.3 75.3 29.48 75.3 407 304 1572 1.16 0.31 0.31 0.000
4:45pm 125 0 3 45 96 74.3 75.3 29.48 75.3 407 304 1572 1.14 0.31 0.31 0.000
4:46pm 125 0 0 45 96 74.5 75.3 29.48 75.3 407 304 1572 1.12 0.31 0.31 0.000
4:47pm 125 0 0 45 96 74.5 75.4 29.48 75.4 407 304 1578 1.20 0.31 0.31 0.000
4:48pm 125 0 1 45 96 74.5 75.4 29.48 75.4 408 304 1579 1.18 0.31 0.31 0.000
4:49pm 125 0 1 45 96 74.5 75.5 29.48 75.5 408 304 1585 1.26 0.31 0.31 0.000
4:50pm 125 2 2 45 96 74.5 75.5 29.48 75.5 408 304 1585 1.24 0.31 0.31 0.000
4:51pm 125 2 2 45 95 74.5 75.4 29.48 75.4 408 382 1579 1.12 0.31 0.31 0.000
4:52pm 216 1 4 45 95 74.5 75.4 29.48 75.4 408 382 1579 1.10 0.31 0.31 0.000
4:53pm 216 0 4 45 95 74.5 75.4 29.48 75.4 408 382 1579 1.08 0.31 0.31 0.000
4:54pm 216 0 4 45 95 74.5 75.4 29.48 75.4 408 382 1579 1.07 0.31 0.31 0.000
4:55pm 216 0 4 45 95 74.5 75.5 29.48 75.5 408 382 1585 1.15 0.31 0.31 0.000
4:56pm 218 0 1 44 95 74.5 75.5 29.48 75.5 408 382 1585 1.13 0.31 0.31 0.000
4:57pm 218 0 1 45 95 74.5 75.5 29.48 75.5 408 382 1585 1.11 0.31 0.31 0.000
4:58pm 218 0 1 45 96 74.5 75.5 29.48 75.5 408 304 1585 1.09 0.31 0.31 0.000
4:59pm 218 0 1 45 96 74.5 75.6 29.48 75.6 408 304 1592 1.17 0.31 0.31 0.000
5:00pm 208 2 2 45 95 74.5 75.6 29.48 75.6 409 382 1593 1.15 0.31 0.31 0.000
5:01pm 201 1 3 45 95 74.5 75.6 29.48 75.6 411 382 1595 1.13 0.31 0.31 0.000
5:02pm 201 0 3 45 95 74.5 75.5 29.48 75.5 413 382 1591 1.02 0.31 0.31 0.000
5:03pm 201 0 3 45 95 74.5 75.5 29.48 75.5 414 382 1592 1.00 0.31 0.31 0.000
5:04pm 201 0 3 45 95 74.5 75.6 29.47 75.6 415 382 1600 1.08 0.31 0.31 0.000
5:05pm 202 1 3 44 95 74.5 75.6 29.47 75.6 415 382 1600 1.06 0.31 0.31 0.000
5:06pm 202 0 2 45 95 74.5 75.6 29.47 75.6 415 382 1600 1.04 0.31 0.31 0.000
5:07pm 202 1 2 45 96 74.5 75.6 29.47 75.6 415 304 1600 1.03 0.31 0.31 0.000
5:08pm 202 2 3 45 95 74.3 75.6 29.47 75.6 415 382 1600 1.01 0.31 0.31 0.000
5:09pm 202 0 3 45 95 74.3 75.6 29.48 75.6 413 382 1597 0.99 0.31 0.31 0.000
5:10pm 202 0 3 44 95 74.3 75.6 29.48 75.6 413 382 1597 0.98 0.31 0.31 0.000
5:11pm 202 0 0 44 95 74.3 75.6 29.48 75.6 414 382 1598 0.96 0.31 0.31 0.000
5:12pm 202 0 0 45 95 74.3 75.6 29.48 75.6 414 382 1598 0.94 0.31 0.31 0.000
5:13pm 202 0 1 44 95 74.3 75.6 29.48 75.6 414 382 1598 0.93 0.31 0.31 0.000
5:14pm 202 0 1 45 95 74.3 75.7 29.47 75.7 415 382 1606 1.01 0.31 0.31 0.000
5:15pm 202 0 1 45 96 74.3 75.7 29.47 75.7 416 304 1607 1.00 0.31 0.31 0.000
5:16pm 202 0 0 44 96 74.3 75.6 29.47 75.6 417 304 1602 0.88 0.31 0.31 0.000
5:17pm 202 1 1 44 96 74.3 75.7 29.47 75.7 418 304 1609 0.96 0.31 0.31 0.000
5:18pm 202 0 2 44 96 74.3 75.7 29.47 75.7 418 304 1610 0.95 0.31 0.31 0.000
5:19pm 202 2 2 44 95 74.3 75.7 29.47 75.7 418 382 1610 0.93 0.31 0.31 0.000
5:20pm 202 2 2 44 95 74.3 75.7 29.47 75.7 418 382 1609 0.92 0.31 0.31 0.000
5:21pm 202 0 2 44 95 74.3 75.7 29.47 75.7 418 382 1609 0.90 0.31 0.31 0.000
5:22pm 202 0 2 44 95 74.3 75.8 29.47 75.8 416 383 1613 0.99 0.31 0.31 0.000
5:23pm 202 0 2 44 95 74.3 75.7 29.47 75.7 416 382 1607 0.87 0.31 0.31 0.000
5:24pm 202 2 2 44 96 74.3 75.7 29.48 75.7 414 304 1605 0.86 0.31 0.31 0.000
5:25pm 202 2 4 46 95 74.3 75.7 29.48 75.7 414 382 1605 0.84 0.31 0.31 0.000
5:26pm 202 1 2 44 95 74.3 75.7 29.48 75.7 413 382 1604 0.83 0.31 0.31 0.000
5:27pm 202 0 2 45 95 74.3 75.7 29.48 75.7 413 382 1604 0.82 0.31 0.31 0.000
5:28pm 202 0 2 45 96 74.3 75.8 29.48 75.8 411 304 1608 0.90 0.31 0.31 0.000
5:29pm 202 0 2 44 96 74.3 75.7 29.48 75.7 411 304 1601 0.79 0.31 0.31 0.000
5:30pm 202 0 2 44 96 74.3 75.8 29.48 75.8 411 304 1608 0.87 0.31 0.31 0.000
5:31pm 202 2 2 45 96 74.3 75.8 29.48 75.8 410 304 1607 0.86 0.31 0.31 0.000
5:32pm 202 0 2 45 96 74.3 75.8 29.48 75.8 410 304 1607 0.84 0.31 0.31 0.000
5:33pm 221 2 4 45 96 74.3 75.8 29.48 75.8 410 304 1607 0.83 0.31 0.31 0.000
5:34pm 172 4 4 44 95 74.3 75.7 29.48 75.7 410 382 1600 0.72 0.31 0.31 0.000
5:35pm 193 4 5 45 95 74.3 75.7 29.48 75.7 410 382 1600 0.71 0.31 0.31 0.000
5:36pm 193 1 4 45 95 74.5 75.6 29.48 75.6 410 382 1594 0.60 0.31 0.31 0.000
5:37pm 193 0 4 45 96 74.5 75.7 29.48 75.7 410 304 1600 0.69 0.31 0.31 0.000
5:38pm 193 0 4 45 96 74.5 75.7 29.48 75.7 411 304 1601 0.68 0.31 0.31 0.000
5:39pm 193 0 4 45 96 74.5 75.7 29.48 75.7 410 304 1600 0.66 0.31 0.31 0.000
5:40pm 193 0 4 44 96 74.5 75.7 29.48 75.7 410 304 1600 0.65 0.31 0.31 0.000
5:41pm 196 0 1 44 96 74.5 75.7 29.48 75.7 410 304 1600 0.64 0.31 0.31 0.000
5:42pm 196 1 2 45 96 74.5 75.8 29.48 75.8 410 304 1607 0.73 0.31 0.31 0.000
5:43pm 196 0 2 45 96 74.5 75.8 29.48 75.8 410 304 1607 0.72 0.31 0.31 0.000
5:44pm 196 3 3 45 96 74.5 75.7 29.48 75.7 409 304 1599 0.61 0.31 0.31 0.000
5:45pm 196 1 3 45 95 74.5 75.7 29.48 75.7 409 382 1599 0.60 0.31 0.31 0.000
5:46pm 196 0 1 45 96 74.5 75.8 29.48 75.8 409 304 1605 0.69 0.31 0.31 0.000
5:47pm 196 2 3 45 96 74.5 75.8 29.48 75.8 409 304 1605 0.68 0.31 0.31 0.000
5:48pm 196 0 3 45 96 74.5 75.9 29.48 75.9 408 305 1611 0.76 0.31 0.31 0.000
5:49pm 196 0 3 45 96 74.5 75.8 29.48 75.8 408 304 1604 0.65 0.31 0.31 0.000
5:50pm 196 0 3 45 96 74.5 75.8 29.48 75.8 408 304 1604 0.64 0.31 0.31 0.000
5:51pm 196 0 0 45 96 74.5 75.9 29.48 75.9 408 305 1611 0.73 0.31 0.31 0.000
5:52pm 196 0 0 44 96 74.3 75.8 29.48 75.8 409 304 1605 0.62 0.31 0.31 0.000
5:53pm 196 0 0 44 96 74.3 75.8 29.48 75.8 409 304 1605 0.61 0.31 0.31 0.000
5:54pm 196 0 0 44 96 74.3 75.8 29.48 75.8 409 304 1605 0.60 0.31 0.31 0.000
5:55pm 196 0 0 45 96 74.3 75.7 29.48 75.7 409 304 1599 0.49 0.31 0.31 0.000
5:56pm 196 0 0 45 96 74.3 75.7 29.48 75.7 410 304 1600 0.48 0.31 0.31 0.000
5:57pm 196 0 0 45 96 74.3 75.7 29.48 75.7 411 304 1601 0.47 0.31 0.31 0.000
5:58pm 196 0 0 45 96 74.3 75.7 29.48 75.7 412 304 1602 0.46 0.31 0.31 0.000
5:59pm 179 0 4 44 96 74.3 75.7 29.48 75.7 412 304 1602 0.46 0.31 0.31 0.000
6:00pm 176 2 4 44 96 74.3 75.7 29.48 75.7 414 304 1605 0.45 0.31 0.31 0.000
6:01pm 176 0 2 44 96 74.3 75.6 29.47 75.6 415 304 1600 0.34 0.31 0.31 0.000
6:02pm 176 1 2 44 96 74.2 75.6 29.47 75.6 417 304 1602 0.34 0.31 0.31 0.000
6:03pm 176 0 2 45 96 74.2 75.6 29.47 75.6 418 304 1603 0.33 0.31 0.31 0.000
6:04pm 220 1 3 44 95 74.2 75.6 29.47 75.6 418 382 1604 0.33 0.31 0.31 0.000
6:05pm 220 2 3 44 96 74.2 75.6 29.47 75.6 418 304 1604 0.32 0.31 0.31 0.000
6:06pm 220 1 2 45 96 74.2 75.5 29.47 75.5 418 304 1598 0.22 0.31 0.31 0.000
6:07pm 220 2 3 44 96 74.2 75.5 29.47 75.5 420 304 1600 0.21 0.31 0.31 0.000
6:08pm 220 1 3 44 96 74.2 75.5 29.47 75.5 420 304 1600 0.21 0.31 0.31 0.000
6:09pm 220 2 3 44 96 74.2 75.5 29.47 75.5 418 304 1598 0.21 0.31 0.31 0.000
6:10pm 220 0 3 44 96 74.2 75.5 29.47 75.5 419 304 1599 0.20 0.31 0.31 0.000
6:11pm 220 0 1 44 96 74.2 75.4 29.47 75.4 419 304 1593 0.10 0.31 0.31 0.000
6:12pm 220 0 1 44 96 74.2 75.5 29.47 75.5 419 304 1599 0.20 0.31 0.31 0.000
6:13pm 220 0 1 45 96 74.2 75.4 29.47 75.4 419 304 1593 0.10 0.31 0.31 0.000
6:14pm 220 2 3 45 96 74.2 75.4 29.47 75.4 419 304 1593 0.09 0.31 0.31 0.000
6:15pm 220 0 3 44 96 74.2 75.4 29.47 75.4 419 304 1593 0.09 0.31 0.31 0.000
6:16pm 220 0 2 45 96 74.2 75.4 29.47 75.4 420 304 1594 0.09 0.31 0.31 0.000
6:17pm 201 3 4 45 96 74.2 75.4 29.47 75.4 420 304 1594 0.09 0.31 0.31 0.000
6:18pm 201 0 4 44 96 74.2 75.3 29.47 75.3 420 304 1587 -0.01 0.31 0.31 0.000
6:19pm 201 1 4 45 96 74.3 75.3 29.47 75.3 420 304 1587 -0.01 0.31 0.31 0.000
6:20pm 201 0 4 44 96 74.3 75.3 29.47 75.3 420 304 1587 -0.01 0.31 0.31 0.000
6:21pm 201 0 1 44 96 74.3 75.3 29.47 75.3 420 304 1587 -0.01 0.31 0.31 0.000
6:22pm 216 3 3 45 96 74.3 75.3 29.47 75.3 421 304 1589 -0.01 0.31 0.31 0.000
6:23pm 213 2 3 44 96 74.3 75.2 29.47 75.2 421 304 1582 -0.11 0.31 0.31 0.000
6:24pm 213 2 3 45 96 74.3 75.1 29.47 75.1 420 304 1575 -0.21 0.31 0.31 0.000
6:25pm 216 1 3 44 96 74.3 75.1 29.47 75.1 420 304 1575 -0.20 0.31 0.31 0.000
6:26pm 216 2 2 45 96 74.3 75.1 29.47 75.1 420 304 1575 -0.20 0.31 0.31 0.000
6:27pm 229 1 3 45 96 74.3 75.1 29.47 75.1 420 304 1575 -0.20 0.31 0.31 0.000
6:28pm 243 0 3 44 96 74.3 75.0 29.47 75.0 420 303 1568 -0.29 0.31 0.31 0.000
6:29pm 244 3 3 44 96 74.3 75.0 29.47 75.0 420 303 1568 -0.29 0.31 0.31 0.000
6:30pm 248 0 4 45 96 74.3 74.9 29.47 74.9 420 303 1562 -0.38 0.31 0.31 0.000
6:31pm 245 2 3 45 96 74.3 74.8 29.47 74.8 420 303 1556 -0.47 0.31 0.31 0.000
6:32pm 247 0 3 45 96 74.3 74.8 29.47 74.8 421 303 1557 -0.46 0.31 0.31 0.000
6:33pm 174 1 3 44 96 74.3 74.8 29.47 74.8 421 303 1557 -0.46 0.31 0.31 0.000
6:34pm 167 2 3 44 96 74.3 74.8 29.47 74.8 421 303 1557 -0.45 0.31 0.31 0.000
6:35pm 167 1 3 44 96 74.3 74.8 29.47 74.8 421 303 1557 -0.44 0.31 0.31 0.000
6:36pm 167 1 1 45 96 74.5 74.8 29.47 74.8 421 303 1557 -0.43 0.31 0.31 0.000
6:37pm 169 0 3 45 96 74.5 74.8 29.47 74.8 421 303 1557 -0.43 0.31 0.31 0.000
6:38pm 169 0 3 44 96 74.5 74.8 29.47 74.8 421 303 1557 -0.42 0.31 0.31 0.000
6:39pm 169 1 3 44 97 74.5 74.8 29.47 74.8 421 226 1557 -0.41 0.31 0.31 0.000
6:40pm 183 1 4 45 96 74.5 74.9 29.47 74.9 421 303 1563 -0.31 0.31 0.31 0.000
6:41pm 183 1 1 45 96 74.5 74.8 29.47 74.8 420 303 1556 -0.40 0.31 0.31 0.000
6:42pm 183 1 2 44 96 74.5 74.8 29.47 74.8 420 303 1556 -0.39 0.31 0.31 0.000
6:43pm 183 0 2 45 96 74.5 74.8 29.47 74.8 420 303 1556 -0.39 0.31 0.31 0.000
6:44pm 183 0 2 45 96 74.3 74.8 29.47 74.8 419 303 1555 -0.38 0.31 0.31 0.000
6:45pm 220 2 5 44 96 74.3 74.8 29.47 74.8 418 303 1554 -0.38 0.31 0.31 0.000
6:46pm 220 0 2 44 96 74.3 74.8 29.47 74.8 418 303 1554 -0.37 0.31 0.31 0.000
6:47pm 218 2 3 45 96 74.3 74.8 29.47 74.8 418 303 1552 -0.36 0.31 0.31 0.000
6:48pm 219 1 3 44 96 74.3 74.8 29.47 74.8 418 303 1552 -0.36 0.31 0.31 0.000
6:49pm 199 1 3 45 96 74.3 74.8 29.47 74.8 418 303 1554 -0.35 0.31 0.31 0.000
6:50pm 199 2 3 44 96 74.3 74.7 29.47 74.7 418 303 1547 -0.44 0.31 0.31 0.000
6:51pm 199 1 2 45 96 74.3 74.7 29.47 74.7 418 303 1547 -0.44 0.31 0.31 0.000
6:52pm 199 1 2 45 96 74.3 74.6 29.47 74.6 419 303 1542 -0.53 0.31 0.31 0.000
6:53pm 199 0 2 44 96 74.3 74.7 29.47 74.7 420 303 1549 -0.42 0.31 0.31 0.000
6:54pm 199 0 2 45 96 74.2 74.7 29.47 74.7 421 303 1551 -0.41 0.31 0.31 0.000
6:55pm 201 1 2 45 96 74.2 74.6 29.47 74.6 421 303 1544 -0.50 0.31 0.31 0.000
6:56pm 201 0 1 45 96 74.2 74.6 29.47 74.6 421 303 1544 -0.50 0.31 0.31 0.000
6:57pm 201 0 2 44 96 74.2 74.6 29.47 74.6 422 303 1545 -0.49 0.31 0.31 0.000
6:58pm 201 0 2 44 96 74.2 74.6 29.47 74.6 422 303 1545 -0.48 0.31 0.31 0.000
6:59pm 201 0 2 45 96 74.2 74.5 29.47 74.5 423 303 1540 -0.57 0.31 0.31 0.000
7:00pm 201 0 2 45 96 74.2 74.5 29.47 74.5 423 303 1540 -0.56 0.31 0.31 0.000
7:01pm 201 0 0 44 97 74.2 74.5 29.47 74.5 422 226 1539 -0.55 0.31 0.31 0.000
7:02pm 201 0 0 44 97 74.2 74.5 29.47 74.5 422 226 1539 -0.54 0.31 0.31 0.000
7:03pm 201 0 0 44 97 74.2 74.5 29.47 74.5 422 226 1539 -0.53 0.31 0.31 0.000
7:04pm 201 0 0 45 97 74.2 74.5 29.47 74.5 422 226 1539 -0.53 0.31 0.31 0.000
7:05pm 201 0 0 44 97 74.2 74.4 29.47 74.4 422 226 1533 -0.62 0.31 0.31 0.000
7:06pm 201 0 0 44 97 74.2 74.5 29.47 74.5 422 226 1539 -0.51 0.31 0.31 0.000
7:07pm 201 0 0 45 97 74.2 74.4 29.47 74.4 421 226 1532 -0.60 0.31 0.31 0.000
7:08pm 201 0 0 45 97 74.2 74.4 29.47 74.4 421 226 1532 -0.59 0.31 0.31 0.000
7:09pm 201 0 0 45 97 74.2 74.4 29.47 74.4 421 226 1532 -0.58 0.31 0.31 0.000
7:10pm 201 0 0 44 97 74.2 74.4 29.47 74.4 421 226 1532 -0.57 0.31 0.31 0.000
7:11pm 201 0 0 44 97 74.2 74.3 29.47 74.3 421 226 1525 -0.66 0.31 0.31 0.000
7:12pm 201 0 0 45 97 74.2 74.3 29.47 74.3 421 226 1525 -0.64 0.31 0.31 0.000
7:13pm 201 1 1 44 97 74.2 74.2 29.47 74.2 421 225 1519 -0.73 0.31 0.31 0.000
7:14pm 199 0 3 45 97 74.2 74.2 29.47 74.2 421 225 1519 -0.72 0.31 0.31 0.000
7:15pm 199 2 3 44 97 74.2 74.1 29.47 74.1 421 225 1513 -0.81 0.31 0.31 0.000
7:16pm 199 1 3 44 97 74.2 74.1 29.47 74.1 421 225 1513 -0.79 0.31 0.31 0.000
7:17pm 199 1 3 45 97 74.3 74.0 29.47 74.0 421 225 1506 -0.88 0.31 0.31 0.000
7:18pm 199 0 3 45 97 74.3 74.0 29.47 74.0 421 225 1506 -0.87 0.31 0.31 0.000
7:19pm 199 1 3 44 97 74.3 74.0 29.47 74.0 421 225 1506 -0.85 0.31 0.31 0.000
7:20pm 199 0 3 45 97 74.3 74.0 29.47 74.0 421 225 1506 -0.84 0.31 0.31 0.000
7:21pm 199 0 0 44 97 74.3 74.0 29.47 74.0 421 225 1506 -0.82 0.31 0.31 0.000
7:22pm 199 1 1 44 97 74.3 73.9 29.47 73.9 420 225 1499 -0.91 0.31 0.31 0.000
7:23pm 199 2 2 45 97 74.3 73.9 29.47 73.9 420 225 1499 -0.89 0.31 0.31 0.000
7:24pm 199 0 2 45 97 74.3 73.9 29.47 73.9 420 225 1499 -0.88 0.31 0.31 0.000
7:25pm 199 0 2 45 97 74.3 73.9 29.47 73.9 420 225 1499 -0.87 0.31 0.31 0.000
7:26pm 199 0 0 44 97 74.3 73.9 29.47 73.9 420 225 1499 -0.85 0.31 0.31 0.000
7:27pm 199 0 0 44 97 74.3 73.9 29.47 73.9 420 225 1499 -0.84 0.31 0.31 0.000
7:28pm 199 0 0 45 97 74.3 73.9 29.47 73.9 419 225 1498 -0.82 0.31 0.31 0.000
7:29pm 199 0 0 45 97 74.3 73.8 29.47 73.8 419 225 1491 -0.91 0.31 0.31 0.000
7:30pm 199 1 1 45 98 74.3 73.8 29.47 73.8 418 149 1490 -0.89 0.31 0.31 0.000
7:31pm 199 0 2 45 98 74.3 73.9 29.47 73.9 418 149 1497 -0.78 0.31 0.31 0.000
7:32pm 199 1 2 45 97 74.3 73.9 29.47 73.9 418 225 1497 -0.77 0.31 0.31 0.000
7:33pm 199 0 2 45 97 74.3 73.8 29.47 73.8 418 225 1489 -0.85 0.31 0.31 0.000
7:34pm 199 0 2 45 97 74.3 73.8 29.47 73.8 417 225 1488 -0.84 0.31 0.31 0.000
7:35pm 199 0 2 45 97 74.3 73.8 29.47 73.8 417 225 1488 -0.82 0.31 0.31 0.000
|
Data provided from: Mark Hofmann's Bel Air, MD Weather Station |